Time,TemperatureF,DewpointF,PressureIn,WindDirection,WindDirectionDegrees,WindSpeedMPH,WindSpeedGustMPH,Humidity,HourlyPrecipIn,Conditions,Clouds,dailyrainin,SolarRadiationWatts/m^2,SoftwareType,DateUTC
2013-02-17 00:00:00,21.6,15.5,29.74,West,264,0.0,0.0,77,0.00,,,0.00,0.00,VWS V14.01,2013-02-17 05:00:00,
2013-02-17 00:01:00,21.6,15.5,29.74,SW,224,0.0,0.0,77,0.00,,,0.00,0.00,VWS V14.01,2013-02-17 05:01:00,
2013-02-17 00:02:00,21.3,14.9,29.74,WSW,240,0.0,0.0,76,0.00,,,0.00,0.00,VWS V14.01,2013-02-17 05:02:00,
2013-02-17 00:03:00,21.3,14.9,29.74,WSW,247,0.0,0.0,76,0.00,,,0.00,0.00,VWS V14.01,2013-02-17 05:03:00,
2013-02-17 00:04:00,21.3,14.9,29.74,WSW,247,0.0,0.0,76,0.00,,,0.00,0.00,VWS V14.01,2013-02-17 05:04:00,
2013-02-17 00:05:00,21.3,14.6,29.74,WSW,241,0.0,0.0,75,0.00,,,0.00,0.00,VWS V14.01,2013-02-17 05:05:00,
2013-02-17 00:06:00,21.4,15.3,29.74,SW,232,0.0,0.0,77,0.00,,,0.00,0.00,VWS V14.01,2013-02-17 05:06:00,
2013-02-17 00:07:00,21.3,14.3,29.74,WSW,240,0.0,0.0,74,0.00,,,0.00,0.00,VWS V14.01,2013-02-17 05:07:00,
2013-02-17 00:08:00,21.3,14.3,29.74,WSW,240,0.0,0.0,74,0.00,,,0.00,0.00,VWS V14.01,2013-02-17 05:08:00,
2013-02-17 00:09:00,21.3,14.9,29.74,WSW,247,0.0,0.0,76,0.00,,,0.00,0.00,VWS V14.01,2013-02-17 05:09:00,
2013-02-17 00:10:00,21.3,14.6,29.74,WSW,241,0.0,0.0,75,0.00,,,0.00,0.00,VWS V14.01,2013-02-17 05:10:00,
2013-02-17 00:11:00,21.3,14.0,29.74,West,265,0.0,0.0,73,0.00,,,0.00,0.00,VWS V14.01,2013-02-17 05:11:00,
2013-02-17 00:12:00,21.3,14.0,29.74,WNW,295,0.0,0.0,73,0.00,,,0.00,0.00,VWS V14.01,2013-02-17 05:12:00,
2013-02-17 00:13:00,21.3,13.7,29.74,WNW,289,0.0,0.0,72,0.00,,,0.00,0.00,VWS V14.01,2013-02-17 05:13:00,
2013-02-17 00:14:00,21.3,13.7,29.74,West,265,0.0,0.0,72,0.00,,,0.00,0.00,VWS V14.01,2013-02-17 05:14:00,
2013-02-17 00:15:00,21.3,13.7,29.74,West,275,0.0,0.0,72,0.00,,,0.00,0.00,VWS V14.01,2013-02-17 05:15:00,
2013-02-17 00:16:00,21.3,14.0,29.74,West,265,0.0,0.0,73,0.00,,,0.00,0.00,VWS V14.01,2013-02-17 05:16:00,
2013-02-17 00:17:00,21.3,13.4,29.74,West,277,0.0,0.0,71,0.00,,,0.00,0.00,VWS V14.01,2013-02-17 05:17:00,
2013-02-17 00:18:00,21.4,13.5,29.74,WSW,250,0.0,0.0,71,0.00,,,0.00,0.00,VWS V14.01,2013-02-17 05:18:00,
2013-02-17 00:19:00,21.4,13.5,29.74,South,185,0.0,0.0,71,0.00,,,0.00,0.00,VWS V14.01,2013-02-17 05:19:00,
2013-02-17 00:20:00,21.4,13.1,29.74,WSW,257,0.0,0.0,70,0.00,,,0.00,0.00,VWS V14.01,2013-02-17 05:20:00,
2013-02-17 00:21:00,21.3,13.4,29.74,West,270,0.0,0.0,71,0.00,,,0.00,0.00,VWS V14.01,2013-02-17 05:21:00,
2013-02-17 00:22:00,21.4,13.1,29.74,West,264,0.0,0.0,70,0.00,,,0.00,0.00,VWS V14.01,2013-02-17 05:22:00,
2013-02-17 00:23:00,21.4,13.1,29.74,West,268,0.0,0.0,70,0.00,,,0.00,0.00,VWS V14.01,2013-02-17 05:23:00,
2013-02-17 00:24:00,21.4,13.1,29.74,SSW,212,0.0,0.0,70,0.00,,,0.00,0.00,VWS V14.01,2013-02-17 05:24:00,
2013-02-17 00:25:00,21.4,13.1,29.74,WNW,282,0.0,0.0,70,0.00,,,0.00,0.00,VWS V14.01,2013-02-17 05:25:00,
2013-02-17 00:26:00,21.4,13.1,29.74,WNW,282,0.0,0.0,70,0.00,,,0.00,0.00,VWS V14.01,2013-02-17 05:26:00,
2013-02-17 00:27:00,21.4,13.1,29.74,West,275,0.0,0.0,70,0.00,,,0.00,0.00,VWS V14.01,2013-02-17 05:27:00,
2013-02-17 00:28:00,21.4,12.8,29.74,West,263,0.0,0.0,69,0.00,,,0.00,0.00,VWS V14.01,2013-02-17 05:28:00,
2013-02-17 00:29:00,21.4,12.8,29.74,WSW,256,0.0,0.0,69,0.00,,,0.00,0.00,VWS V14.01,2013-02-17 05:29:00,
2013-02-17 00:30:00,21.4,12.8,29.74,West,281,0.0,0.0,69,0.00,,,0.00,0.00,VWS V14.01,2013-02-17 05:30:00,
2013-02-17 00:31:00,21.4,12.8,29.74,West,271,0.0,0.0,69,0.00,,,0.00,0.00,VWS V14.01,2013-02-17 05:31:00,
2013-02-17 00:32:00,21.4,13.1,29.74,West,275,0.0,0.0,70,0.00,,,0.00,0.00,VWS V14.01,2013-02-17 05:32:00,
2013-02-17 00:33:00,21.4,12.8,29.74,WSW,251,0.0,0.0,69,0.00,,,0.00,0.00,VWS V14.01,2013-02-17 05:33:00,
2013-02-17 00:34:00,21.4,12.8,29.74,West,277,0.0,0.0,69,0.00,,,0.00,0.00,VWS V14.01,2013-02-17 05:34:00,
2013-02-17 00:35:00,21.4,12.5,29.74,WSW,253,0.0,0.0,68,0.00,,,0.00,0.00,VWS V14.01,2013-02-17 05:35:00,
2013-02-17 00:36:00,21.4,12.5,29.74,West,261,0.0,0.0,68,0.00,,,0.00,0.00,VWS V14.01,2013-02-17 05:36:00,
2013-02-17 00:37:00,21.4,12.8,29.74,West,264,0.0,0.0,69,0.00,,,0.00,0.00,VWS V14.01,2013-02-17 05:37:00,
2013-02-17 00:38:00,21.4,12.5,29.74,WSW,256,0.0,0.0,68,0.00,,,0.00,0.00,VWS V14.01,2013-02-17 05:38:00,
2013-02-17 00:39:00,21.4,12.5,29.74,WSW,251,0.0,0.0,68,0.00,,,0.00,0.00,VWS V14.01,2013-02-17 05:39:00,
2013-02-17 00:40:00,21.4,12.5,29.74,West,265,0.0,0.0,68,0.00,,,0.00,0.00,VWS V14.01,2013-02-17 05:40:00,
2013-02-17 00:41:00,21.4,12.5,29.74,WSW,244,0.0,0.0,68,0.00,,,0.00,0.00,VWS V14.01,2013-02-17 05:41:00,
2013-02-17 00:42:00,21.4,12.5,29.74,WNW,292,0.0,0.0,68,0.00,,,0.00,0.00,VWS V14.01,2013-02-17 05:42:00,
2013-02-17 00:43:00,21.4,12.5,29.74,WSW,256,0.0,0.0,68,0.00,,,0.00,0.00,VWS V14.01,2013-02-17 05:43:00,
2013-02-17 00:44:00,21.4,12.5,29.74,WSW,256,0.0,0.0,68,0.00,,,0.00,0.00,VWS V14.01,2013-02-17 05:44:00,
2013-02-17 00:45:00,21.4,12.5,29.74,WSW,240,0.0,0.0,68,0.00,,,0.00,0.00,VWS V14.01,2013-02-17 05:45:00,
2013-02-17 00:46:00,21.4,12.8,29.74,West,275,0.0,0.0,69,0.00,,,0.00,0.00,VWS V14.01,2013-02-17 05:46:00,
2013-02-17 00:47:00,21.4,12.8,29.74,West,263,0.0,0.0,69,0.00,,,0.00,0.00,VWS V14.01,2013-02-17 05:47:00,
2013-02-17 00:48:00,21.4,13.1,29.74,WSW,253,0.0,0.0,70,0.00,,,0.00,0.00,VWS V14.01,2013-02-17 05:48:00,
2013-02-17 00:49:00,21.4,12.5,29.74,WSW,256,0.0,0.0,68,0.00,,,0.00,0.00,VWS V14.01,2013-02-17 05:49:00,
2013-02-17 00:50:00,21.4,13.5,29.74,WNW,301,0.0,0.0,71,0.00,,,0.00,0.00,VWS V14.01,2013-02-17 05:50:00,
2013-02-17 00:51:00,21.4,13.5,29.74,WSW,256,0.0,0.0,71,0.00,,,0.00,0.00,VWS V14.01,2013-02-17 05:51:00,
2013-02-17 00:52:00,21.4,14.1,29.74,SW,222,0.0,0.0,73,0.00,,,0.00,0.00,VWS V14.01,2013-02-17 05:52:00,
2013-02-17 00:53:00,21.4,14.4,29.74,WSW,251,0.0,0.0,74,0.00,,,0.00,0.00,VWS V14.01,2013-02-17 05:53:00,
2013-02-17 00:54:00,21.4,13.1,29.74,WSW,248,0.0,0.0,70,0.00,,,0.00,0.00,VWS V14.01,2013-02-17 05:54:00,
2013-02-17 00:55:00,21.3,14.6,29.74,WNW,288,0.0,0.0,75,0.00,,,0.00,0.00,VWS V14.01,2013-02-17 05:55:00,
2013-02-17 00:56:00,21.3,14.9,29.74,WSW,251,0.0,0.0,76,0.00,,,0.00,0.00,VWS V14.01,2013-02-17 05:56:00,
2013-02-17 00:57:00,21.1,14.7,29.74,West,275,0.0,0.0,76,0.00,,,0.00,0.00,VWS V14.01,2013-02-17 05:57:00,
2013-02-17 00:58:00,21.1,15.0,29.74,WNW,288,0.0,0.0,77,0.00,,,0.00,0.00,VWS V14.01,2013-02-17 05:58:00,
2013-02-17 00:59:00,21.1,15.0,29.74,WSW,250,0.0,0.0,77,0.00,,,0.00,0.00,VWS V14.01,2013-02-17 05:59:00,
2013-02-17 01:00:00,21.3,14.6,29.74,WNW,288,0.0,0.0,75,0.00,,,0.00,0.00,VWS V14.01,2013-02-17 06:00:00,
2013-02-17 01:01:00,21.0,14.9,29.75,WSW,253,0.0,0.0,77,0.00,,,0.00,0.00,VWS V14.01,2013-02-17 06:01:00,
2013-02-17 01:02:00,21.0,14.9,29.75,West,261,0.0,0.0,77,0.00,,,0.00,0.00,VWS V14.01,2013-02-17 06:02:00,
2013-02-17 01:03:00,20.8,15.0,29.75,South,169,0.0,0.0,78,0.00,,,0.00,0.00,VWS V14.01,2013-02-17 06:03:00,
2013-02-17 01:04:00,20.8,15.0,29.75,SW,230,0.0,0.0,78,0.00,,,0.00,0.00,VWS V14.01,2013-02-17 06:04:00,
2013-02-17 01:05:00,21.0,14.9,29.75,SW,216,0.0,0.0,77,0.00,,,0.00,0.00,VWS V14.01,2013-02-17 06:05:00,
2013-02-17 01:06:00,20.6,14.8,29.75,SSW,208,0.0,0.0,78,0.00,,,0.00,0.00,VWS V14.01,2013-02-17 06:06:00,
2013-02-17 01:07:00,20.5,14.7,29.75,WNW,301,0.0,0.0,78,0.00,,,0.00,0.00,VWS V14.01,2013-02-17 06:07:00,
2013-02-17 01:08:00,20.5,14.4,29.75,West,275,0.0,0.0,77,0.00,,,0.00,0.00,VWS V14.01,2013-02-17 06:08:00,
2013-02-17 01:09:00,20.5,14.4,29.75,WSW,257,0.0,0.0,77,0.00,,,0.00,0.00,VWS V14.01,2013-02-17 06:09:00,
2013-02-17 01:10:00,20.5,14.4,29.75,WSW,250,0.0,0.0,77,0.00,,,0.00,0.00,VWS V14.01,2013-02-17 06:10:00,
2013-02-17 01:11:00,20.6,14.8,29.75,SSW,208,0.0,0.0,78,0.00,,,0.00,0.00,VWS V14.01,2013-02-17 06:11:00,
2013-02-17 01:12:00,20.3,13.7,29.75,WSW,247,0.0,0.0,75,0.00,,,0.00,0.00,VWS V14.01,2013-02-17 06:12:00,
2013-02-17 01:13:00,20.3,13.7,29.75,West,277,0.0,0.0,75,0.00,,,0.00,0.00,VWS V14.01,2013-02-17 06:13:00,
2013-02-17 01:14:00,20.3,13.4,29.75,SSW,210,0.0,0.0,74,0.00,,,0.00,0.00,VWS V14.01,2013-02-17 06:14:00,
2013-02-17 01:15:00,20.3,13.4,29.75,WSW,254,0.0,0.0,74,0.00,,,0.00,0.00,VWS V14.01,2013-02-17 06:15:00,
2013-02-17 01:16:00,20.3,13.4,29.75,WSW,256,0.0,0.0,74,0.00,,,0.00,0.00,VWS V14.01,2013-02-17 06:16:00,
2013-02-17 01:17:00,20.3,13.7,29.75,WSW,247,0.0,0.0,75,0.00,,,0.00,0.00,VWS V14.01,2013-02-17 06:17:00,
2013-02-17 01:18:00,20.3,13.4,29.75,WSW,251,0.0,0.0,74,0.00,,,0.00,0.00,VWS V14.01,2013-02-17 06:18:00,
2013-02-17 01:19:00,20.3,13.4,29.75,West,260,0.0,0.0,74,0.00,,,0.00,0.00,VWS V14.01,2013-02-17 06:19:00,
2013-02-17 01:20:00,20.3,13.4,29.75,SSE,157,0.0,0.0,74,0.00,,,0.00,0.00,VWS V14.01,2013-02-17 06:20:00,
2013-02-17 01:21:00,20.2,12.9,29.75,NW,311,0.0,0.0,73,0.00,,,0.00,0.00,VWS V14.01,2013-02-17 06:21:00,
2013-02-17 01:22:00,20.3,13.4,29.75,SW,226,0.0,0.0,74,0.00,,,0.00,0.00,VWS V14.01,2013-02-17 06:22:00,
2013-02-17 01:23:00,20.2,12.3,29.75,West,271,0.0,0.0,71,0.00,,,0.00,0.00,VWS V14.01,2013-02-17 06:23:00,
2013-02-17 01:24:00,20.2,12.0,29.75,WSW,246,0.0,0.0,70,0.00,,,0.00,0.00,VWS V14.01,2013-02-17 06:24:00,
2013-02-17 01:25:00,20.2,11.7,29.75,WSW,258,0.0,0.0,69,0.00,,,0.00,0.00,VWS V14.01,2013-02-17 06:25:00,
2013-02-17 01:26:00,20.2,11.4,29.75,SSW,208,0.0,0.0,68,0.00,,,0.00,0.00,VWS V14.01,2013-02-17 06:26:00,
2013-02-17 01:27:00,20.2,11.4,29.75,West,265,0.0,0.0,68,0.00,,,0.00,0.00,VWS V14.01,2013-02-17 06:27:00,
2013-02-17 01:28:00,20.2,12.3,29.75,West,271,0.0,0.0,71,0.00,,,0.00,0.00,VWS V14.01,2013-02-17 06:28:00,
2013-02-17 01:29:00,20.2,10.7,29.75,SW,232,0.0,0.0,66,0.00,,,0.00,0.00,VWS V14.01,2013-02-17 06:29:00,
2013-02-17 01:30:00,20.2,10.3,29.76,SSW,198,0.0,0.0,65,0.00,,,0.00,0.00,VWS V14.01,2013-02-17 06:30:00,
2013-02-17 01:31:00,20.2,10.3,29.76,West,260,0.0,0.0,65,0.00,,,0.00,0.00,VWS V14.01,2013-02-17 06:31:00,
2013-02-17 01:32:00,20.2,10.0,29.76,WSW,258,0.0,0.0,64,0.00,,,0.00,0.00,VWS V14.01,2013-02-17 06:32:00,
2013-02-17 01:33:00,20.2,11.4,29.75,West,261,0.0,0.0,68,0.00,,,0.00,0.00,VWS V14.01,2013-02-17 06:33:00,
2013-02-17 01:34:00,20.3,10.1,29.76,NW,306,0.0,0.0,64,0.00,,,0.00,0.00,VWS V14.01,2013-02-17 06:34:00,
2013-02-17 01:35:00,20.3,10.1,29.76,West,272,0.0,0.0,64,0.00,,,0.00,0.00,VWS V14.01,2013-02-17 06:35:00,
2013-02-17 01:36:00,20.2,10.0,29.76,West,278,0.0,0.0,64,0.00,,,0.00,0.00,VWS V14.01,2013-02-17 06:36:00,
2013-02-17 01:37:00,20.3,10.1,29.76,WSW,254,0.0,0.0,64,0.00,,,0.00,0.00,VWS V14.01,2013-02-17 06:37:00,
2013-02-17 01:38:00,20.2,10.0,29.76,WSW,246,0.0,0.0,64,0.00,,,0.00,0.00,VWS V14.01,2013-02-17 06:38:00,
2013-02-17 01:39:00,20.3,10.1,29.76,NW,306,0.0,0.0,64,0.00,,,0.00,0.00,VWS V14.01,2013-02-17 06:39:00,
2013-02-17 01:40:00,20.3,9.7,29.76,West,263,0.0,0.0,63,0.00,,,0.00,0.00,VWS V14.01,2013-02-17 06:40:00,
2013-02-17 01:41:00,20.3,9.7,29.76,West,278,0.0,0.0,63,0.00,,,0.00,0.00,VWS V14.01,2013-02-17 06:41:00,
2013-02-17 01:42:00,20.3,9.7,29.76,WSW,254,0.0,0.0,63,0.00,,,0.00,0.00,VWS V14.01,2013-02-17 06:42:00,
2013-02-17 01:43:00,20.3,9.4,29.76,West,270,0.0,0.0,62,0.00,,,0.00,0.00,VWS V14.01,2013-02-17 06:43:00,
2013-02-17 01:44:00,20.3,9.7,29.76,West,268,0.0,0.0,63,0.00,,,0.00,0.00,VWS V14.01,2013-02-17 06:44:00,
2013-02-17 01:45:00,20.3,9.4,29.76,SW,236,0.0,0.0,62,0.00,,,0.00,0.00,VWS V14.01,2013-02-17 06:45:00,
2013-02-17 01:46:00,20.3,9.4,29.76,West,268,0.0,0.0,62,0.00,,,0.00,0.00,VWS V14.01,2013-02-17 06:46:00,
2013-02-17 01:47:00,20.3,9.4,29.76,WSW,253,0.0,0.0,62,0.00,,,0.00,0.00,VWS V14.01,2013-02-17 06:47:00,
2013-02-17 01:48:00,20.3,9.4,29.76,WSW,240,0.0,0.0,62,0.00,,,0.00,0.00,VWS V14.01,2013-02-17 06:48:00,
2013-02-17 01:49:00,20.3,9.4,29.76,West,261,0.0,0.0,62,0.00,,,0.00,0.00,VWS V14.01,2013-02-17 06:49:00,
2013-02-17 01:50:00,20.3,9.4,29.76,WSW,243,0.0,0.0,62,0.00,,,0.00,0.00,VWS V14.01,2013-02-17 06:50:00,
2013-02-17 01:51:00,20.2,9.3,29.76,West,264,0.0,0.0,62,0.00,,,0.00,0.00,VWS V14.01,2013-02-17 06:51:00,
2013-02-17 01:52:00,20.2,9.3,29.76,West,267,0.0,0.0,62,0.00,,,0.00,0.00,VWS V14.01,2013-02-17 06:52:00,
2013-02-17 01:53:00,20.2,9.3,29.76,SSW,205,0.0,0.0,62,0.00,,,0.00,0.00,VWS V14.01,2013-02-17 06:53:00,
2013-02-17 01:54:00,20.2,9.3,29.76,West,260,0.0,0.0,62,0.00,,,0.00,0.00,VWS V14.01,2013-02-17 06:54:00,
2013-02-17 01:55:00,20.3,9.4,29.76,WSW,243,0.0,0.0,62,0.00,,,0.00,0.00,VWS V14.01,2013-02-17 06:55:00,
2013-02-17 01:56:00,20.0,8.4,29.76,SW,232,0.0,0.0,60,0.00,,,0.00,0.00,VWS V14.01,2013-02-17 06:56:00,
2013-02-17 01:57:00,20.0,8.4,29.76,North,356,0.0,0.0,60,0.00,,,0.00,0.00,VWS V14.01,2013-02-17 06:57:00,
2013-02-17 01:58:00,19.9,8.3,29.76,WNW,302,0.0,0.0,60,0.00,,,0.00,0.00,VWS V14.01,2013-02-17 06:58:00,
2013-02-17 01:59:00,19.9,8.6,29.76,SW,236,0.0,0.0,61,0.00,,,0.00,0.00,VWS V14.01,2013-02-17 06:59:00,
2013-02-17 02:00:00,19.9,8.6,29.76,WNW,295,0.0,0.0,61,0.00,,,0.00,0.00,VWS V14.01,2013-02-17 07:00:00,
2013-02-17 02:01:00,20.0,8.4,29.76,SW,232,0.0,0.0,60,0.00,,,0.00,0.00,VWS V14.01,2013-02-17 07:01:00,
2013-02-17 02:02:00,19.7,8.1,29.76,West,274,0.0,0.0,60,0.00,,,0.00,0.00,VWS V14.01,2013-02-17 07:02:00,
2013-02-17 02:03:00,19.7,8.1,29.76,WSW,246,0.0,0.0,60,0.00,,,0.00,0.00,VWS V14.01,2013-02-17 07:03:00,
2013-02-17 02:04:00,19.7,8.1,29.76,West,275,0.0,0.0,60,0.00,,,0.00,0.00,VWS V14.01,2013-02-17 07:04:00,
2013-02-17 02:05:00,19.7,8.1,29.76,SSW,203,0.0,0.0,60,0.00,,,0.00,0.00,VWS V14.01,2013-02-17 07:05:00,
2013-02-17 02:06:00,19.9,8.3,29.76,WSW,250,0.0,0.0,60,0.00,,,0.00,0.00,VWS V14.01,2013-02-17 07:06:00,
2013-02-17 02:07:00,19.5,7.9,29.76,West,267,0.0,0.0,60,0.00,,,0.00,0.00,VWS V14.01,2013-02-17 07:07:00,
2013-02-17 02:08:00,19.5,7.9,29.76,WSW,244,0.0,0.0,60,0.00,,,0.00,0.00,VWS V14.01,2013-02-17 07:08:00,
2013-02-17 02:09:00,19.5,7.9,29.76,WNW,282,0.0,0.0,60,0.00,,,0.00,0.00,VWS V14.01,2013-02-17 07:09:00,
2013-02-17 02:10:00,19.4,7.8,29.76,West,267,0.0,0.0,60,0.00,,,0.00,0.00,VWS V14.01,2013-02-17 07:10:00,
2013-02-17 02:11:00,19.4,7.8,29.76,West,260,0.0,0.0,60,0.00,,,0.00,0.00,VWS V14.01,2013-02-17 07:11:00,
2013-02-17 02:12:00,19.5,7.9,29.76,West,267,0.0,0.0,60,0.00,,,0.00,0.00,VWS V14.01,2013-02-17 07:12:00,
2013-02-17 02:13:00,19.4,7.8,29.76,West,268,0.0,0.0,60,0.00,,,0.00,0.00,VWS V14.01,2013-02-17 07:13:00,
2013-02-17 02:14:00,19.2,8.0,29.76,West,270,0.0,0.0,61,0.00,,,0.00,0.00,VWS V14.01,2013-02-17 07:14:00,
2013-02-17 02:15:00,19.2,8.0,29.75,West,281,0.0,0.0,61,0.00,,,0.00,0.00,VWS V14.01,2013-02-17 07:15:00,
2013-02-17 02:16:00,19.2,8.0,29.75,WSW,254,0.0,0.0,61,0.00,,,0.00,0.00,VWS V14.01,2013-02-17 07:16:00,
2013-02-17 02:17:00,19.4,8.2,29.76,West,277,0.0,0.0,61,0.00,,,0.00,0.00,VWS V14.01,2013-02-17 07:17:00,
2013-02-17 02:18:00,19.2,8.0,29.75,WSW,257,0.0,0.0,61,0.00,,,0.00,0.00,VWS V14.01,2013-02-17 07:18:00,
2013-02-17 02:19:00,19.2,8.3,29.75,West,260,0.0,0.0,62,0.00,,,0.00,0.00,VWS V14.01,2013-02-17 07:19:00,
2013-02-17 02:20:00,19.1,8.2,29.75,WSW,247,0.0,0.0,62,0.00,,,0.00,0.00,VWS V14.01,2013-02-17 07:20:00,
2013-02-17 02:21:00,19.1,8.2,29.75,West,264,0.0,0.0,62,0.00,,,0.00,0.00,VWS V14.01,2013-02-17 07:21:00,
2013-02-17 02:22:00,19.1,8.2,29.75,SW,227,0.0,0.0,62,0.00,,,0.00,0.00,VWS V14.01,2013-02-17 07:22:00,
2013-02-17 02:23:00,19.2,8.0,29.75,WSW,257,0.0,0.0,61,0.00,,,0.00,0.00,VWS V14.01,2013-02-17 07:23:00,
2013-02-17 02:24:00,19.1,8.2,29.75,West,263,0.0,0.0,62,0.00,,,0.00,0.00,VWS V14.01,2013-02-17 07:24:00,
2013-02-17 02:25:00,18.9,8.1,29.75,West,264,0.0,0.0,62,0.00,,,0.00,0.00,VWS V14.01,2013-02-17 07:25:00,
2013-02-17 02:26:00,18.9,8.1,29.75,WNW,288,0.0,0.0,62,0.00,,,0.00,0.00,VWS V14.01,2013-02-17 07:26:00,
2013-02-17 02:27:00,18.9,8.1,29.75,WSW,254,0.0,0.0,62,0.00,,,0.00,0.00,VWS V14.01,2013-02-17 07:27:00,
2013-02-17 02:28:00,18.9,8.4,29.75,WSW,253,0.0,0.0,63,0.00,,,0.00,0.00,VWS V14.01,2013-02-17 07:28:00,
2013-02-17 02:29:00,19.1,8.2,29.75,West,263,0.0,0.0,62,0.00,,,0.00,0.00,VWS V14.01,2013-02-17 07:29:00,
2013-02-17 02:30:00,18.9,8.4,29.76,WSW,251,0.0,0.0,63,0.00,,,0.00,0.00,VWS V14.01,2013-02-17 07:30:00,
2013-02-17 02:31:00,18.9,8.4,29.76,WSW,248,0.0,0.0,63,0.00,,,0.00,0.00,VWS V14.01,2013-02-17 07:31:00,
2013-02-17 02:32:00,18.8,8.3,29.76,WSW,241,0.0,0.0,63,0.00,,,0.00,0.00,VWS V14.01,2013-02-17 07:32:00,
2013-02-17 02:33:00,18.8,8.3,29.76,West,263,0.0,0.0,63,0.00,,,0.00,0.00,VWS V14.01,2013-02-17 07:33:00,
2013-02-17 02:34:00,18.9,8.4,29.75,West,264,0.0,0.0,63,0.00,,,0.00,0.00,VWS V14.01,2013-02-17 07:34:00,
2013-02-17 02:35:00,18.8,8.3,29.76,WSW,247,0.0,0.0,63,0.00,,,0.00,0.00,VWS V14.01,2013-02-17 07:35:00,
2013-02-17 02:36:00,18.8,8.6,29.76,WSW,256,0.0,0.0,64,0.00,,,0.00,0.00,VWS V14.01,2013-02-17 07:36:00,
2013-02-17 02:37:00,18.8,8.6,29.76,SW,223,0.0,0.0,64,0.00,,,0.00,0.00,VWS V14.01,2013-02-17 07:37:00,
2013-02-17 02:38:00,18.6,8.5,29.76,SSE,162,0.0,0.0,64,0.00,,,0.00,0.00,VWS V14.01,2013-02-17 07:38:00,
2013-02-17 02:39:00,18.8,8.3,29.76,WSW,239,0.0,0.0,63,0.00,,,0.00,0.00,VWS V14.01,2013-02-17 07:39:00,
2013-02-17 02:40:00,18.6,8.1,29.76,West,267,0.0,0.0,63,0.00,,,0.00,0.00,VWS V14.01,2013-02-17 07:40:00,
2013-02-17 02:41:00,18.6,8.1,29.76,West,263,0.0,0.0,63,0.00,,,0.00,0.00,VWS V14.01,2013-02-17 07:41:00,
2013-02-17 02:42:00,18.6,8.5,29.76,SW,234,0.0,0.0,64,0.00,,,0.00,0.00,VWS V14.01,2013-02-17 07:42:00,
2013-02-17 02:43:00,18.6,8.5,29.76,West,277,0.0,0.0,64,0.00,,,0.00,0.00,VWS V14.01,2013-02-17 07:43:00,
2013-02-17 02:44:00,18.6,8.5,29.76,SW,217,0.0,0.0,64,0.00,,,0.00,0.00,VWS V14.01,2013-02-17 07:44:00,
2013-02-17 02:45:00,18.6,8.1,29.76,West,267,0.0,0.0,63,0.00,,,0.00,0.00,VWS V14.01,2013-02-17 07:45:00,
2013-02-17 02:46:00,18.6,8.5,29.76,West,271,0.0,0.0,64,0.00,,,0.00,0.00,VWS V14.01,2013-02-17 07:46:00,
2013-02-17 02:47:00,18.4,8.3,29.76,West,261,0.0,0.0,64,0.00,,,0.00,0.00,VWS V14.01,2013-02-17 07:47:00,
2013-02-17 02:48:00,18.4,8.3,29.76,WNW,298,0.0,0.0,64,0.00,,,0.00,0.00,VWS V14.01,2013-02-17 07:48:00,
2013-02-17 02:49:00,18.4,8.3,29.76,West,275,0.0,0.0,64,0.00,,,0.00,0.00,VWS V14.01,2013-02-17 07:49:00,
2013-02-17 02:50:00,18.4,8.3,29.76,WNW,296,0.0,0.0,64,0.00,,,0.00,0.00,VWS V14.01,2013-02-17 07:50:00,
2013-02-17 02:51:00,18.6,8.5,29.76,West,271,0.0,0.0,64,0.00,,,0.00,0.00,VWS V14.01,2013-02-17 07:51:00,
2013-02-17 02:52:00,18.4,8.3,29.76,SSW,203,0.0,0.0,64,0.00,,,0.00,0.00,VWS V14.01,2013-02-17 07:52:00,
2013-02-17 02:53:00,18.4,8.6,29.76,SW,232,0.0,0.0,65,0.00,,,0.00,0.00,VWS V14.01,2013-02-17 07:53:00,
2013-02-17 02:54:00,18.4,8.6,29.76,SW,232,0.0,0.0,65,0.00,,,0.00,0.00,VWS V14.01,2013-02-17 07:54:00,
2013-02-17 02:55:00,18.3,8.5,29.76,SSW,200,0.0,0.0,65,0.00,,,0.00,0.00,VWS V14.01,2013-02-17 07:55:00,
2013-02-17 02:56:00,18.4,8.3,29.76,WNW,292,0.0,0.0,64,0.00,,,0.00,0.00,VWS V14.01,2013-02-17 07:56:00,
2013-02-17 02:57:00,18.3,8.5,29.76,WNW,296,0.0,0.0,65,0.00,,,0.00,0.00,VWS V14.01,2013-02-17 07:57:00,
2013-02-17 02:58:00,18.3,8.5,29.76,SSW,212,0.0,0.0,65,0.00,,,0.00,0.00,VWS V14.01,2013-02-17 07:58:00,
2013-02-17 02:59:00,18.3,8.5,29.76,SW,222,0.0,0.0,65,0.00,,,0.00,0.00,VWS V14.01,2013-02-17 07:59:00,
2013-02-17 03:00:00,18.3,8.5,29.77,WSW,244,0.0,0.0,65,0.00,,,0.00,0.00,VWS V14.01,2013-02-17 08:00:00,
2013-02-17 03:01:00,18.3,8.5,29.77,West,277,0.0,0.0,65,0.00,,,0.00,0.00,VWS V14.01,2013-02-17 08:01:00,
2013-02-17 03:02:00,18.3,8.5,29.76,WNW,296,0.0,0.0,65,0.00,,,0.00,0.00,VWS V14.01,2013-02-17 08:02:00,
2013-02-17 03:03:00,18.3,8.5,29.77,WNW,291,0.0,0.0,65,0.00,,,0.00,0.00,VWS V14.01,2013-02-17 08:03:00,
2013-02-17 03:04:00,18.3,8.5,29.77,West,280,0.0,0.0,65,0.00,,,0.00,0.00,VWS V14.01,2013-02-17 08:04:00,
2013-02-17 03:05:00,18.3,8.5,29.77,West,268,0.0,0.0,65,0.00,,,0.00,0.00,VWS V14.01,2013-02-17 08:05:00,
2013-02-17 03:06:00,18.3,8.5,29.77,West,263,0.0,0.0,65,0.00,,,0.00,0.00,VWS V14.01,2013-02-17 08:06:00,
2013-02-17 03:07:00,18.3,8.5,29.77,WNW,284,0.0,0.0,65,0.00,,,0.00,0.00,VWS V14.01,2013-02-17 08:07:00,
2013-02-17 03:08:00,18.3,8.5,29.77,WNW,291,0.0,0.0,65,0.00,,,0.00,0.00,VWS V14.01,2013-02-17 08:08:00,
2013-02-17 03:09:00,18.3,8.5,29.77,West,263,0.0,0.0,65,0.00,,,0.00,0.00,VWS V14.01,2013-02-17 08:09:00,
2013-02-17 03:10:00,18.3,8.5,29.77,West,267,0.0,0.0,65,0.00,,,0.00,0.00,VWS V14.01,2013-02-17 08:10:00,
2013-02-17 03:11:00,18.3,8.5,29.77,WSW,258,0.0,0.0,65,0.00,,,0.00,0.00,VWS V14.01,2013-02-17 08:11:00,
2013-02-17 03:12:00,18.3,8.5,29.77,West,263,0.0,0.0,65,0.00,,,0.00,0.00,VWS V14.01,2013-02-17 08:12:00,
2013-02-17 03:13:00,18.3,8.5,29.77,SW,223,0.0,0.0,65,0.00,,,0.00,0.00,VWS V14.01,2013-02-17 08:13:00,
2013-02-17 03:14:00,18.3,8.5,29.77,West,263,0.0,0.0,65,0.00,,,0.00,0.00,VWS V14.01,2013-02-17 08:14:00,
2013-02-17 03:15:00,18.3,8.5,29.77,West,280,0.0,0.0,65,0.00,,,0.00,0.00,VWS V14.01,2013-02-17 08:15:00,
2013-02-17 03:16:00,18.3,8.5,29.77,West,267,0.0,0.0,65,0.00,,,0.00,0.00,VWS V14.01,2013-02-17 08:16:00,
2013-02-17 03:17:00,18.3,8.5,29.77,WSW,241,0.0,0.0,65,0.00,,,0.00,0.00,VWS V14.01,2013-02-17 08:17:00,
2013-02-17 03:18:00,18.3,8.5,29.77,West,264,0.0,0.0,65,0.00,,,0.00,0.00,VWS V14.01,2013-02-17 08:18:00,
2013-02-17 03:19:00,18.3,8.5,29.77,WNW,284,0.0,0.0,65,0.00,,,0.00,0.00,VWS V14.01,2013-02-17 08:19:00,
2013-02-17 03:20:00,18.3,8.5,29.77,West,280,0.0,0.0,65,0.00,,,0.00,0.00,VWS V14.01,2013-02-17 08:20:00,
2013-02-17 03:21:00,18.3,8.5,29.77,WSW,248,0.0,0.0,65,0.00,,,0.00,0.00,VWS V14.01,2013-02-17 08:21:00,
2013-02-17 03:22:00,18.3,8.5,29.77,WSW,257,0.0,0.0,65,0.00,,,0.00,0.00,VWS V14.01,2013-02-17 08:22:00,
2013-02-17 03:23:00,18.3,8.5,29.77,West,263,0.0,0.0,65,0.00,,,0.00,0.00,VWS V14.01,2013-02-17 08:23:00,
2013-02-17 03:24:00,18.3,8.5,29.77,WNW,285,0.0,0.0,65,0.00,,,0.00,0.00,VWS V14.01,2013-02-17 08:24:00,
2013-02-17 03:25:00,18.3,8.5,29.77,WNW,288,0.0,0.0,65,0.00,,,0.00,0.00,VWS V14.01,2013-02-17 08:25:00,
2013-02-17 03:26:00,18.3,8.5,29.77,WSW,248,0.0,0.0,65,0.00,,,0.00,0.00,VWS V14.01,2013-02-17 08:26:00,
2013-02-17 03:27:00,18.3,8.5,29.77,West,280,0.0,0.0,65,0.00,,,0.00,0.00,VWS V14.01,2013-02-17 08:27:00,
2013-02-17 03:28:00,18.3,8.5,29.77,West,268,0.0,0.0,65,0.00,,,0.00,0.00,VWS V14.01,2013-02-17 08:28:00,
2013-02-17 03:29:00,18.3,8.5,29.77,West,267,0.0,0.0,65,0.00,,,0.00,0.00,VWS V14.01,2013-02-17 08:29:00,
2013-02-17 03:30:00,18.3,8.5,29.77,SW,227,0.0,0.0,65,0.00,,,0.00,0.00,VWS V14.01,2013-02-17 08:30:00,
2013-02-17 03:31:00,18.3,8.5,29.77,WNW,291,0.0,0.0,65,0.00,,,0.00,0.00,VWS V14.01,2013-02-17 08:31:00,
2013-02-17 03:32:00,18.3,8.5,29.77,West,280,0.0,0.0,65,0.00,,,0.00,0.00,VWS V14.01,2013-02-17 08:32:00,
2013-02-17 03:33:00,18.3,8.5,29.77,WNW,291,0.0,0.0,65,0.00,,,0.00,0.00,VWS V14.01,2013-02-17 08:33:00,
2013-02-17 03:34:00,18.3,8.5,29.77,WNW,291,0.0,0.0,65,0.00,,,0.00,0.00,VWS V14.01,2013-02-17 08:34:00,
2013-02-17 03:35:00,18.3,8.5,29.77,WNW,291,0.0,0.0,65,0.00,,,0.00,0.00,VWS V14.01,2013-02-17 08:35:00,
2013-02-17 03:36:00,18.3,8.9,29.77,WNW,298,0.0,0.0,66,0.00,,,0.00,0.00,VWS V14.01,2013-02-17 08:36:00,
2013-02-17 03:37:00,18.3,9.2,29.77,WNW,285,0.0,0.0,67,0.00,,,0.00,0.00,VWS V14.01,2013-02-17 08:37:00,
2013-02-17 03:38:00,18.3,8.5,29.77,WNW,291,0.0,0.0,65,0.00,,,0.00,0.00,VWS V14.01,2013-02-17 08:38:00,
2013-02-17 03:39:00,18.1,9.3,29.77,WSW,247,0.0,0.0,68,0.00,,,0.00,0.00,VWS V14.01,2013-02-17 08:39:00,
2013-02-17 03:40:00,18.0,9.6,29.77,WNW,287,0.0,0.0,69,0.00,,,0.00,0.00,VWS V14.01,2013-02-17 08:40:00,
2013-02-17 03:41:00,17.8,9.4,29.77,West,260,0.0,0.0,69,0.00,,,0.00,0.00,VWS V14.01,2013-02-17 08:41:00,
2013-02-17 03:42:00,17.8,9.7,29.77,WSW,251,0.0,0.0,70,0.00,,,0.00,0.00,VWS V14.01,2013-02-17 08:42:00,
2013-02-17 03:43:00,18.1,9.3,29.77,WSW,258,0.0,0.0,68,0.00,,,0.00,0.00,VWS V14.01,2013-02-17 08:43:00,
2013-02-17 03:44:00,17.5,10.0,29.77,West,270,0.0,0.0,72,0.00,,,0.00,0.00,VWS V14.01,2013-02-17 08:44:00,
2013-02-17 03:45:00,17.3,10.1,29.77,WNW,282,0.0,0.0,73,0.00,,,0.00,0.00,VWS V14.01,2013-02-17 08:45:00,
2013-02-17 03:46:00,17.2,10.1,29.77,West,265,0.0,0.0,73,0.00,,,0.00,0.00,VWS V14.01,2013-02-17 08:46:00,
2013-02-17 03:47:00,17.2,10.1,29.77,WSW,258,0.0,0.0,73,0.00,,,0.00,0.00,VWS V14.01,2013-02-17 08:47:00,
2013-02-17 03:48:00,17.0,9.6,29.77,West,261,0.0,0.0,72,0.00,,,0.00,0.00,VWS V14.01,2013-02-17 08:48:00,
2013-02-17 03:49:00,17.5,10.0,29.77,West,270,0.0,0.0,72,0.00,,,0.00,0.00,VWS V14.01,2013-02-17 08:49:00,
2013-02-17 03:50:00,17.0,9.2,29.77,WSW,251,0.0,0.0,71,0.00,,,0.00,0.00,VWS V14.01,2013-02-17 08:50:00,
2013-02-17 03:51:00,16.9,8.8,29.77,WNW,284,0.0,0.0,70,0.00,,,0.00,0.00,VWS V14.01,2013-02-17 08:51:00,
2013-02-17 03:52:00,16.9,8.8,29.77,WNW,289,0.0,0.0,70,0.00,,,0.00,0.00,VWS V14.01,2013-02-17 08:52:00,
2013-02-17 03:53:00,16.9,8.5,29.77,West,267,0.0,0.0,69,0.00,,,0.00,0.00,VWS V14.01,2013-02-17 08:53:00,
2013-02-17 03:54:00,16.9,8.5,29.77,West,263,0.0,0.0,69,0.00,,,0.00,0.00,VWS V14.01,2013-02-17 08:54:00,
2013-02-17 03:55:00,17.0,9.2,29.77,WSW,251,0.0,0.0,71,0.00,,,0.00,0.00,VWS V14.01,2013-02-17 08:55:00,
2013-02-17 03:56:00,16.7,8.3,29.77,WSW,241,0.0,0.0,69,0.00,,,0.00,0.00,VWS V14.01,2013-02-17 08:56:00,
2013-02-17 03:57:00,16.7,8.3,29.77,West,274,0.0,0.0,69,0.00,,,0.00,0.00,VWS V14.01,2013-02-17 08:57:00,
2013-02-17 03:58:00,16.7,8.3,29.77,West,271,0.0,0.0,69,0.00,,,0.00,0.00,VWS V14.01,2013-02-17 08:58:00,
2013-02-17 03:59:00,16.7,8.3,29.77,WSW,250,0.0,0.0,69,0.00,,,0.00,0.00,VWS V14.01,2013-02-17 08:59:00,
2013-02-17 04:00:00,16.7,8.3,29.77,WNW,288,0.0,0.0,69,0.00,,,0.00,0.00,VWS V14.01,2013-02-17 09:00:00,
2013-02-17 04:01:00,16.7,8.3,29.77,SW,232,0.0,0.0,69,0.00,,,0.00,0.00,VWS V14.01,2013-02-17 09:01:00,
2013-02-17 04:02:00,16.7,8.3,29.77,West,272,0.0,0.0,69,0.00,,,0.00,0.00,VWS V14.01,2013-02-17 09:02:00,
2013-02-17 04:03:00,16.7,8.3,29.77,West,275,0.0,0.0,69,0.00,,,0.00,0.00,VWS V14.01,2013-02-17 09:03:00,
2013-02-17 04:04:00,16.5,8.1,29.77,West,274,0.0,0.0,69,0.00,,,0.00,0.00,VWS V14.01,2013-02-17 09:04:00,
2013-02-17 04:05:00,16.7,8.3,29.77,WNW,291,0.0,0.0,69,0.00,,,0.00,0.00,VWS V14.01,2013-02-17 09:05:00,
2013-02-17 04:06:00,16.5,8.1,29.77,West,280,0.0,0.0,69,0.00,,,0.00,0.00,VWS V14.01,2013-02-17 09:06:00,
2013-02-17 04:07:00,16.5,8.1,29.77,WSW,240,0.0,0.0,69,0.00,,,0.00,0.00,VWS V14.01,2013-02-17 09:07:00,
2013-02-17 04:08:00,16.5,8.1,29.77,West,264,0.0,0.0,69,0.00,,,0.00,0.00,VWS V14.01,2013-02-17 09:08:00,
2013-02-17 04:09:00,16.5,8.1,29.77,West,270,0.0,0.0,69,0.00,,,0.00,0.00,VWS V14.01,2013-02-17 09:09:00,
2013-02-17 04:10:00,16.5,8.1,29.77,WSW,248,0.0,0.0,69,0.00,,,0.00,0.00,VWS V14.01,2013-02-17 09:10:00,
2013-02-17 04:11:00,16.5,8.1,29.77,West,268,0.0,0.0,69,0.00,,,0.00,0.00,VWS V14.01,2013-02-17 09:11:00,
2013-02-17 04:12:00,16.5,8.1,29.77,WNW,288,0.0,0.0,69,0.00,,,0.00,0.00,VWS V14.01,2013-02-17 09:12:00,
2013-02-17 04:13:00,16.5,8.1,29.77,West,275,0.0,0.0,69,0.00,,,0.00,0.00,VWS V14.01,2013-02-17 09:13:00,
2013-02-17 04:14:00,16.5,8.1,29.77,West,275,0.0,0.0,69,0.00,,,0.00,0.00,VWS V14.01,2013-02-17 09:14:00,
2013-02-17 04:15:00,16.5,8.1,29.78,West,277,0.0,0.0,69,0.00,,,0.00,0.00,VWS V14.01,2013-02-17 09:15:00,
2013-02-17 04:16:00,16.5,8.1,29.77,West,268,0.0,0.0,69,0.00,,,0.00,0.00,VWS V14.01,2013-02-17 09:16:00,
2013-02-17 04:17:00,16.5,8.1,29.78,West,272,0.0,0.0,69,0.00,,,0.00,0.00,VWS V14.01,2013-02-17 09:17:00,
2013-02-17 04:18:00,16.5,8.1,29.78,WSW,256,0.0,0.0,69,0.00,,,0.00,0.00,VWS V14.01,2013-02-17 09:18:00,
2013-02-17 04:19:00,16.5,8.1,29.78,WNW,282,0.0,0.0,69,0.00,,,0.00,0.00,VWS V14.01,2013-02-17 09:19:00,
2013-02-17 04:20:00,16.5,8.1,29.78,WSW,258,0.0,0.0,69,0.00,,,0.00,0.00,VWS V14.01,2013-02-17 09:20:00,
2013-02-17 04:21:00,16.5,8.1,29.78,West,260,0.0,0.0,69,0.00,,,0.00,0.00,VWS V14.01,2013-02-17 09:21:00,
2013-02-17 04:22:00,16.5,8.1,29.78,WNW,282,0.0,0.0,69,0.00,,,0.00,0.00,VWS V14.01,2013-02-17 09:22:00,
2013-02-17 04:23:00,16.5,7.8,29.78,West,281,0.0,0.0,68,0.00,,,0.00,0.00,VWS V14.01,2013-02-17 09:23:00,
2013-02-17 04:24:00,16.5,7.8,29.78,WNW,284,0.0,0.0,68,0.00,,,0.00,0.00,VWS V14.01,2013-02-17 09:24:00,
2013-02-17 04:25:00,16.5,7.8,29.78,WNW,289,0.0,0.0,68,0.00,,,0.00,0.00,VWS V14.01,2013-02-17 09:25:00,
2013-02-17 04:26:00,16.5,8.1,29.78,WSW,257,0.0,0.0,69,0.00,,,0.00,0.00,VWS V14.01,2013-02-17 09:26:00,
2013-02-17 04:27:00,16.5,8.1,29.78,WNW,289,0.0,0.0,69,0.00,,,0.00,0.00,VWS V14.01,2013-02-17 09:27:00,
2013-02-17 04:28:00,16.5,8.1,29.78,West,261,0.0,0.0,69,0.00,,,0.00,0.00,VWS V14.01,2013-02-17 09:28:00,
2013-02-17 04:29:00,16.5,7.8,29.78,WSW,246,0.0,0.0,68,0.00,,,0.00,0.00,VWS V14.01,2013-02-17 09:29:00,
2013-02-17 04:30:00,16.5,8.1,29.78,WSW,251,0.0,0.0,69,0.00,,,0.00,0.00,VWS V14.01,2013-02-17 09:30:00,
2013-02-17 04:31:00,16.5,8.1,29.78,SW,233,0.0,0.0,69,0.00,,,0.00,0.00,VWS V14.01,2013-02-17 09:31:00,
2013-02-17 04:32:00,16.5,8.1,29.78,WNW,285,0.0,0.0,69,0.00,,,0.00,0.00,VWS V14.01,2013-02-17 09:32:00,
2013-02-17 04:33:00,16.5,7.8,29.78,West,281,0.0,0.0,68,0.00,,,0.00,0.00,VWS V14.01,2013-02-17 09:33:00,
2013-02-17 04:34:00,16.5,7.8,29.78,West,275,0.0,0.0,68,0.00,,,0.00,0.00,VWS V14.01,2013-02-17 09:34:00,
2013-02-17 04:35:00,16.5,7.5,29.78,West,272,0.0,0.0,67,0.00,,,0.00,0.00,VWS V14.01,2013-02-17 09:35:00,
2013-02-17 04:36:00,16.5,8.1,29.78,WSW,239,0.0,0.0,69,0.00,,,0.00,0.00,VWS V14.01,2013-02-17 09:36:00,
2013-02-17 04:37:00,16.5,7.5,29.78,WSW,244,0.0,0.0,67,0.00,,,0.00,0.00,VWS V14.01,2013-02-17 09:37:00,
2013-02-17 04:38:00,16.5,7.5,29.78,WSW,254,0.0,0.0,67,0.00,,,0.00,0.00,VWS V14.01,2013-02-17 09:38:00,
2013-02-17 04:39:00,16.5,7.8,29.78,WSW,240,0.0,0.0,68,0.00,,,0.00,0.00,VWS V14.01,2013-02-17 09:39:00,
2013-02-17 04:40:00,16.4,7.7,29.78,SSE,165,0.0,0.0,68,0.00,,,0.00,0.00,VWS V14.01,2013-02-17 09:40:00,
2013-02-17 04:41:00,16.4,7.7,29.78,SW,233,0.0,0.0,68,0.00,,,0.00,0.00,VWS V14.01,2013-02-17 09:41:00,
2013-02-17 04:42:00,16.5,7.5,29.78,WSW,244,0.0,0.0,67,0.00,,,0.00,0.00,VWS V14.01,2013-02-17 09:42:00,
2013-02-17 04:43:00,16.4,7.0,29.78,West,264,0.0,0.0,66,0.00,,,0.00,0.00,VWS V14.01,2013-02-17 09:43:00,
2013-02-17 04:44:00,16.4,7.0,29.78,WSW,250,0.0,0.0,66,0.00,,,0.00,0.00,VWS V14.01,2013-02-17 09:44:00,
2013-02-17 04:45:00,16.4,7.0,29.79,WSW,239,0.0,0.0,66,0.00,,,0.00,0.00,VWS V14.01,2013-02-17 09:45:00,
2013-02-17 04:46:00,16.4,7.4,29.79,West,274,0.0,0.0,67,0.00,,,0.00,0.00,VWS V14.01,2013-02-17 09:46:00,
2013-02-17 04:47:00,16.4,7.4,29.79,WSW,240,0.0,0.0,67,0.00,,,0.00,0.00,VWS V14.01,2013-02-17 09:47:00,
2013-02-17 04:48:00,16.4,7.0,29.78,West,264,0.0,0.0,66,0.00,,,0.00,0.00,VWS V14.01,2013-02-17 09:48:00,
2013-02-17 04:49:00,16.4,7.7,29.79,SSE,167,0.0,0.0,68,0.00,,,0.00,0.00,VWS V14.01,2013-02-17 09:49:00,
2013-02-17 04:50:00,16.4,7.7,29.79,West,260,0.0,0.0,68,0.00,,,0.00,0.00,VWS V14.01,2013-02-17 09:50:00,
2013-02-17 04:51:00,16.4,7.7,29.79,WSW,253,0.0,0.0,68,0.00,,,0.00,0.00,VWS V14.01,2013-02-17 09:51:00,
2013-02-17 04:52:00,16.4,7.7,29.79,SW,227,0.0,0.0,68,0.00,,,0.00,0.00,VWS V14.01,2013-02-17 09:52:00,
2013-02-17 04:53:00,16.4,7.4,29.79,West,260,0.0,0.0,67,0.00,,,0.00,0.00,VWS V14.01,2013-02-17 09:53:00,
2013-02-17 04:54:00,16.2,7.5,29.79,WSW,244,0.0,0.0,68,0.00,,,0.00,0.00,VWS V14.01,2013-02-17 09:54:00,
2013-02-17 04:58:00,16.4,8.0,29.79,WSW,257,0.0,0.0,69,0.00,,,0.00,0.00,VWS V14.01,2013-02-17 09:58:00,
2013-02-17 04:59:00,16.1,8.1,29.79,SSW,196,0.0,0.0,70,0.00,,,0.00,0.00,VWS V14.01,2013-02-17 09:59:00,
2013-02-17 05:00:00,16.1,8.1,29.79,WSW,257,0.0,0.0,70,0.00,,,0.00,0.00,VWS V14.01,2013-02-17 10:00:00,
2013-02-17 05:05:00,16.1,8.1,29.79,SSW,196,0.0,0.0,70,0.00,,,0.00,0.00,VWS V14.01,2013-02-17 10:05:00,
2013-02-17 05:08:00,15.7,7.0,29.79,WSW,256,0.0,0.0,68,0.00,,,0.00,0.00,VWS V14.01,2013-02-17 10:08:00,
2013-02-17 05:09:00,15.7,7.0,29.79,West,271,0.0,0.0,68,0.00,,,0.00,0.00,VWS V14.01,2013-02-17 10:09:00,
2013-02-17 05:10:00,15.9,7.5,29.79,SW,215,0.0,0.0,69,0.00,,,0.00,0.00,VWS V14.01,2013-02-17 10:10:00,
2013-02-17 05:14:00,15.7,6.7,29.81,SW,223,0.0,0.0,67,0.00,,,0.00,0.00,VWS V14.01,2013-02-17 10:14:00,
2013-02-17 05:19:00,15.7,6.7,29.81,SW,223,0.0,0.0,67,0.00,,,0.00,0.00,VWS V14.01,2013-02-17 10:19:00,
2013-02-17 05:20:00,15.7,5.7,29.81,SW,234,0.0,0.0,64,0.00,,,0.00,0.00,VWS V14.01,2013-02-17 10:20:00,
2013-02-17 05:25:00,15.7,5.7,29.81,West,278,0.0,0.0,64,0.00,,,0.00,0.00,VWS V14.01,2013-02-17 10:25:00,
2013-02-17 05:26:00,15.7,5.4,29.81,WSW,246,0.0,0.0,63,0.00,,,0.00,0.00,VWS V14.01,2013-02-17 10:26:00,
2013-02-17 05:27:00,15.7,5.0,29.81,SSW,205,0.0,0.0,62,0.00,,,0.00,0.00,VWS V14.01,2013-02-17 10:27:00,
2013-02-17 05:28:00,15.7,4.7,29.81,WNW,287,0.0,0.0,61,0.00,,,0.00,0.00,VWS V14.01,2013-02-17 10:28:00,
2013-02-17 05:29:00,15.7,4.7,29.81,SW,232,0.0,0.0,61,0.00,,,0.00,0.00,VWS V14.01,2013-02-17 10:29:00,
2013-02-17 05:30:00,15.7,5.4,29.81,WSW,257,0.0,0.0,63,0.00,,,0.00,0.00,VWS V14.01,2013-02-17 10:30:00,
2013-02-17 05:31:00,15.7,4.7,29.82,West,278,0.0,0.0,61,0.00,,,0.00,0.00,VWS V14.01,2013-02-17 10:31:00,
2013-02-17 05:32:00,15.7,4.7,29.82,West,267,0.0,0.0,61,0.00,,,0.00,0.00,VWS V14.01,2013-02-17 10:32:00,
2013-02-17 05:33:00,15.7,4.7,29.82,West,263,0.0,0.0,61,0.00,,,0.00,0.00,VWS V14.01,2013-02-17 10:33:00,
2013-02-17 05:34:00,15.7,4.3,29.82,WSW,237,0.0,0.0,60,0.00,,,0.00,0.00,VWS V14.01,2013-02-17 10:34:00,
2013-02-17 05:35:00,15.6,4.6,29.82,East,93,0.0,0.0,61,0.00,,,0.00,0.00,VWS V14.01,2013-02-17 10:35:00,
2013-02-17 05:36:00,15.7,4.7,29.82,West,278,0.0,0.0,61,0.00,,,0.00,0.00,VWS V14.01,2013-02-17 10:36:00,
2013-02-17 05:37:00,15.6,4.2,29.82,West,278,0.0,0.0,60,0.00,,,0.00,0.00,VWS V14.01,2013-02-17 10:37:00,
2013-02-17 05:38:00,15.6,4.2,29.82,SW,234,0.0,0.0,60,0.00,,,0.00,0.00,VWS V14.01,2013-02-17 10:38:00,
2013-02-17 05:39:00,15.6,4.2,29.82,West,274,0.0,0.0,60,0.00,,,0.00,0.00,VWS V14.01,2013-02-17 10:39:00,
2013-02-17 05:40:00,15.6,3.8,29.82,West,270,0.0,0.0,59,0.00,,,0.00,0.00,VWS V14.01,2013-02-17 10:40:00,
2013-02-17 05:41:00,15.6,4.2,29.82,SW,230,0.0,0.0,60,0.00,,,0.00,0.00,VWS V14.01,2013-02-17 10:41:00,
2013-02-17 05:42:00,15.4,3.7,29.82,WSW,251,0.0,0.0,59,0.00,,,0.00,0.00,VWS V14.01,2013-02-17 10:42:00,
2013-02-17 05:43:00,15.4,3.7,29.82,SW,220,0.0,0.0,59,0.00,,,0.00,0.00,VWS V14.01,2013-02-17 10:43:00,
2013-02-17 05:44:00,15.4,3.3,29.82,WSW,239,0.0,0.0,58,0.00,,,0.00,0.00,VWS V14.01,2013-02-17 10:44:00,
2013-02-17 05:45:00,15.4,3.3,29.81,West,263,0.0,0.0,58,0.00,,,0.00,0.00,VWS V14.01,2013-02-17 10:45:00,
2013-02-17 05:46:00,15.4,3.7,29.81,WNW,292,0.0,0.0,59,0.00,,,0.00,0.00,VWS V14.01,2013-02-17 10:46:00,
2013-02-17 05:47:00,15.4,3.7,29.82,WSW,251,0.0,0.0,59,0.00,,,0.00,0.00,VWS V14.01,2013-02-17 10:47:00,
2013-02-17 05:48:00,15.2,3.1,29.81,WSW,239,0.0,0.0,58,0.00,,,0.00,0.00,VWS V14.01,2013-02-17 10:48:00,
2013-02-17 05:49:00,15.2,3.1,29.81,SW,224,0.0,0.0,58,0.00,,,0.00,0.00,VWS V14.01,2013-02-17 10:49:00,
2013-02-17 05:50:00,15.2,3.1,29.81,WSW,258,0.0,0.0,58,0.00,,,0.00,0.00,VWS V14.01,2013-02-17 10:50:00,
2013-02-17 05:51:00,15.2,3.5,29.81,West,264,0.0,0.0,59,0.00,,,0.00,0.00,VWS V14.01,2013-02-17 10:51:00,
2013-02-17 05:52:00,15.4,3.3,29.81,West,281,0.0,0.0,58,0.00,,,0.00,0.00,VWS V14.01,2013-02-17 10:52:00,
2013-02-17 05:53:00,15.2,2.7,29.81,WSW,253,0.0,0.0,57,0.00,,,0.00,0.00,VWS V14.01,2013-02-17 10:53:00,
2013-02-17 05:54:00,15.1,2.6,29.81,SW,217,0.0,0.0,57,0.00,,,0.00,0.00,VWS V14.01,2013-02-17 10:54:00,
2013-02-17 05:55:00,15.1,2.6,29.81,WNW,282,0.0,0.0,57,0.00,,,0.00,0.00,VWS V14.01,2013-02-17 10:55:00,
2013-02-17 05:56:00,15.1,2.2,29.81,WNW,292,0.0,0.0,56,0.00,,,0.00,0.00,VWS V14.01,2013-02-17 10:56:00,
2013-02-17 05:57:00,15.1,1.9,29.81,WNW,284,0.0,0.0,55,0.00,,,0.00,0.00,VWS V14.01,2013-02-17 10:57:00,
2013-02-17 05:58:00,15.2,2.7,29.81,WSW,253,0.0,0.0,57,0.00,,,0.00,0.00,VWS V14.01,2013-02-17 10:58:00,
2013-02-17 05:59:00,14.9,1.7,29.81,West,263,0.0,0.0,55,0.00,,,0.00,0.00,VWS V14.01,2013-02-17 10:59:00,
2013-02-17 06:00:00,14.9,1.7,29.82,West,271,0.0,0.0,55,0.00,,,0.00,0.00,VWS V14.01,2013-02-17 11:00:00,
2013-02-17 06:01:00,14.9,1.7,29.82,WNW,288,0.0,0.0,55,0.00,,,0.00,0.00,VWS V14.01,2013-02-17 11:01:00,
2013-02-17 06:02:00,14.9,2.0,29.82,WNW,285,0.0,0.0,56,0.00,,,0.00,0.00,VWS V14.01,2013-02-17 11:02:00,
2013-02-17 06:03:00,15.1,1.9,29.81,West,274,0.0,0.0,55,0.00,,,0.00,0.00,VWS V14.01,2013-02-17 11:03:00,
2013-02-17 06:04:00,14.9,1.7,29.82,SW,223,0.0,0.0,55,0.00,,,0.00,0.00,VWS V14.01,2013-02-17 11:04:00,
2013-02-17 06:05:00,14.9,1.7,29.82,WSW,237,0.0,0.0,55,0.00,,,0.00,0.00,VWS V14.01,2013-02-17 11:05:00,
2013-02-17 06:06:00,14.8,1.6,29.82,SSW,213,0.0,0.0,55,0.00,,,0.00,0.00,VWS V14.01,2013-02-17 11:06:00,
2013-02-17 06:07:00,14.8,1.6,29.82,WSW,258,0.0,0.0,55,0.00,,,0.00,0.00,VWS V14.01,2013-02-17 11:07:00,
2013-02-17 06:08:00,14.9,1.7,29.82,SSW,199,0.0,0.0,55,0.00,,,0.00,0.00,VWS V14.01,2013-02-17 11:08:00,
2013-02-17 06:09:00,14.8,1.6,29.82,West,270,0.0,0.0,55,0.00,,,0.00,0.00,VWS V14.01,2013-02-17 11:09:00,
2013-02-17 06:10:00,14.8,1.6,29.82,WNW,285,0.0,0.0,55,0.00,,,0.00,0.00,VWS V14.01,2013-02-17 11:10:00,
2013-02-17 06:11:00,14.8,1.6,29.82,West,264,0.0,0.0,55,0.00,,,0.00,0.00,VWS V14.01,2013-02-17 11:11:00,
2013-02-17 06:12:00,14.6,1.4,29.82,WSW,240,0.0,0.0,55,0.00,,,0.00,0.00,VWS V14.01,2013-02-17 11:12:00,
2013-02-17 06:13:00,14.8,1.6,29.82,WNW,301,0.0,0.0,55,0.00,,,0.00,0.00,VWS V14.01,2013-02-17 11:13:00,
2013-02-17 06:14:00,14.6,1.0,29.82,NW,322,0.0,0.0,54,0.00,,,0.00,0.00,VWS V14.01,2013-02-17 11:14:00,
2013-02-17 06:15:00,14.6,0.6,29.83,WNW,296,0.0,0.0,53,0.00,,,0.00,0.00,VWS V14.01,2013-02-17 11:15:00,
2013-02-17 06:16:00,14.6,0.6,29.83,SW,236,0.0,0.0,53,0.00,,,0.00,0.00,VWS V14.01,2013-02-17 11:16:00,
2013-02-17 06:17:00,14.6,0.2,29.83,West,277,0.0,0.0,52,0.00,,,0.00,0.00,VWS V14.01,2013-02-17 11:17:00,
2013-02-17 06:18:00,14.6,1.4,29.82,WNW,285,0.0,0.0,55,0.00,,,0.00,0.00,VWS V14.01,2013-02-17 11:18:00,
2013-02-17 06:19:00,14.6,0.6,29.83,WSW,247,0.0,0.0,53,0.00,,,0.00,0.00,VWS V14.01,2013-02-17 11:19:00,
2013-02-17 06:20:00,14.6,0.6,29.83,West,280,0.0,0.0,53,0.00,,,0.00,0.00,VWS V14.01,2013-02-17 11:20:00,
2013-02-17 06:21:00,14.6,0.2,29.83,West,264,0.0,0.0,52,0.00,,,0.00,0.00,VWS V14.01,2013-02-17 11:21:00,
2013-02-17 06:22:00,14.6,0.6,29.83,WSW,257,0.0,0.0,53,0.00,,,0.00,0.00,VWS V14.01,2013-02-17 11:22:00,
2013-02-17 06:23:00,14.4,0.0,29.83,SSW,205,0.0,0.0,52,0.00,,,0.00,0.00,VWS V14.01,2013-02-17 11:23:00,
2013-02-17 06:24:00,14.6,0.6,29.83,WSW,247,0.0,0.0,53,0.00,,,0.00,0.00,VWS V14.01,2013-02-17 11:24:00,
2013-02-17 06:25:00,14.4,0.0,29.83,West,265,0.0,0.0,52,0.00,,,0.00,0.00,VWS V14.01,2013-02-17 11:25:00,
2013-02-17 06:26:00,14.4,0.0,29.83,West,280,0.0,0.0,52,0.00,,,0.00,0.00,VWS V14.01,2013-02-17 11:26:00,
2013-02-17 06:27:00,14.4,0.0,29.83,WSW,247,0.0,0.0,52,0.00,,,0.00,0.00,VWS V14.01,2013-02-17 11:27:00,
2013-02-17 06:28:00,14.4,0.0,29.83,WSW,248,0.0,0.0,52,0.00,,,0.00,0.00,VWS V14.01,2013-02-17 11:28:00,
2013-02-17 06:29:00,14.4,0.0,29.83,WSW,240,0.0,0.0,52,0.00,,,0.00,0.00,VWS V14.01,2013-02-17 11:29:00,
2013-02-17 06:30:00,14.4,0.0,29.83,West,265,0.0,0.0,52,0.00,,,0.00,0.00,VWS V14.01,2013-02-17 11:30:00,
2013-02-17 06:31:00,14.3,-0.1,29.84,WSW,248,0.0,0.0,52,0.00,,,0.00,0.00,VWS V14.01,2013-02-17 11:31:00,
2013-02-17 06:32:00,14.3,-0.1,29.84,WSW,257,0.0,0.0,52,0.00,,,0.00,0.00,VWS V14.01,2013-02-17 11:32:00,
2013-02-17 06:33:00,14.3,-0.1,29.84,West,265,0.0,0.0,52,0.00,,,0.00,0.00,VWS V14.01,2013-02-17 11:33:00,
2013-02-17 06:34:00,14.3,-0.1,29.84,West,260,0.0,0.0,52,0.00,,,0.00,0.00,VWS V14.01,2013-02-17 11:34:00,
2013-02-17 06:35:00,14.4,0.4,29.84,WSW,257,0.0,0.0,53,0.00,,,0.00,0.00,VWS V14.01,2013-02-17 11:35:00,
2013-02-17 06:36:00,14.3,-0.1,29.84,WSW,239,0.0,0.0,52,0.00,,,0.00,0.00,VWS V14.01,2013-02-17 11:36:00,
2013-02-17 06:37:00,14.3,-0.1,29.84,South,182,0.0,0.0,52,0.00,,,0.00,0.00,VWS V14.01,2013-02-17 11:37:00,
2013-02-17 06:38:00,14.3,-0.5,29.84,South,186,0.0,0.0,51,0.00,,,0.00,0.00,VWS V14.01,2013-02-17 11:38:00,
2013-02-17 06:39:00,14.3,-0.5,29.84,West,260,0.0,0.0,51,0.00,,,0.00,0.00,VWS V14.01,2013-02-17 11:39:00,
2013-02-17 06:40:00,14.3,-0.5,29.84,West,268,0.0,0.0,51,0.00,,,0.00,0.00,VWS V14.01,2013-02-17 11:40:00,
2013-02-17 06:41:00,14.3,-0.1,29.84,West,270,0.0,0.0,52,0.00,,,0.00,0.00,VWS V14.01,2013-02-17 11:41:00,
2013-02-17 06:42:00,14.3,-0.1,29.84,WSW,251,0.0,0.0,52,0.00,,,0.00,0.00,VWS V14.01,2013-02-17 11:42:00,
2013-02-17 06:43:00,14.3,-0.1,29.84,West,278,0.0,0.0,52,0.00,,,0.00,0.00,VWS V14.01,2013-02-17 11:43:00,
2013-02-17 06:44:00,14.3,-0.5,29.84,West,280,0.0,0.0,51,0.00,,,0.00,0.00,VWS V14.01,2013-02-17 11:44:00,
2013-02-17 06:45:00,14.3,-0.5,29.84,SSW,212,0.0,0.0,51,0.00,,,0.00,0.00,VWS V14.01,2013-02-17 11:45:00,
2013-02-17 06:46:00,14.3,-0.1,29.84,West,270,0.0,0.0,52,0.00,,,0.00,0.00,VWS V14.01,2013-02-17 11:46:00,
2013-02-17 06:47:00,14.1,-0.7,29.84,WNW,287,0.0,0.0,51,0.00,,,0.00,0.00,VWS V14.01,2013-02-17 11:47:00,
2013-02-17 06:48:00,14.1,-0.7,29.84,WSW,248,0.0,0.0,51,0.00,,,0.00,0.00,VWS V14.01,2013-02-17 11:48:00,
2013-02-17 06:49:00,14.1,-0.7,29.84,West,271,0.0,0.0,51,0.00,,,0.00,0.00,VWS V14.01,2013-02-17 11:49:00,
2013-02-17 06:50:00,14.1,-0.7,29.84,WSW,257,0.0,0.0,51,0.00,,,0.00,0.00,VWS V14.01,2013-02-17 11:50:00,
2013-02-17 06:51:00,14.1,-0.3,29.84,West,277,0.0,0.0,52,0.00,,,0.00,0.00,VWS V14.01,2013-02-17 11:51:00,
2013-02-17 06:52:00,14.1,-0.7,29.84,West,268,0.0,0.0,51,0.00,,,0.00,0.00,VWS V14.01,2013-02-17 11:52:00,
2013-02-17 06:53:00,14.1,-0.7,29.84,WNW,288,0.0,0.0,51,0.00,,,0.00,0.00,VWS V14.01,2013-02-17 11:53:00,
2013-02-17 06:54:00,14.1,-0.7,29.84,WSW,237,0.0,0.0,51,0.00,,,0.00,0.00,VWS V14.01,2013-02-17 11:54:00,
2013-02-17 06:55:00,14.1,-0.3,29.84,West,274,0.0,0.0,52,0.00,,,0.00,0.00,VWS V14.01,2013-02-17 11:55:00,
2013-02-17 06:56:00,14.1,-0.3,29.84,West,271,0.0,0.0,52,0.00,,,0.00,0.00,VWS V14.01,2013-02-17 11:56:00,
2013-02-17 06:57:00,14.1,-0.7,29.84,West,268,0.0,0.0,51,0.00,,,0.00,0.00,VWS V14.01,2013-02-17 11:57:00,
2013-02-17 06:58:00,14.1,-0.3,29.84,South,178,0.0,0.0,52,0.00,,,0.00,0.00,VWS V14.01,2013-02-17 11:58:00,
2013-02-17 06:59:00,14.1,-0.3,29.84,WSW,243,0.0,0.0,52,0.00,,,0.00,0.00,VWS V14.01,2013-02-17 11:59:00,
2013-02-17 07:00:00,14.1,-0.3,29.85,West,260,0.0,0.0,52,0.00,,,0.00,0.00,VWS V14.01,2013-02-17 12:00:00,
2013-02-17 07:01:00,14.1,0.1,29.85,West,265,0.0,0.0,53,0.00,,,0.00,0.00,VWS V14.01,2013-02-17 12:01:00,
2013-02-17 07:02:00,14.0,0.0,29.85,WSW,248,0.0,0.0,53,0.00,,,0.00,0.00,VWS V14.01,2013-02-17 12:02:00,
2013-02-17 07:03:00,14.1,-0.3,29.84,South,178,0.0,0.0,52,0.00,,,0.00,0.00,VWS V14.01,2013-02-17 12:03:00,
2013-02-17 07:04:00,14.0,0.0,29.85,West,261,0.0,0.0,53,0.00,,,0.00,0.00,VWS V14.01,2013-02-17 12:04:00,
2013-02-17 07:05:00,14.0,0.0,29.85,SSW,198,0.0,0.0,53,0.00,,,0.00,0.00,VWS V14.01,2013-02-17 12:05:00,
2013-02-17 07:06:00,14.0,0.4,29.85,West,275,0.0,0.0,54,0.00,,,0.00,0.00,VWS V14.01,2013-02-17 12:06:00,
2013-02-17 07:07:00,14.0,0.4,29.85,WSW,250,0.0,0.0,54,0.00,,,0.00,0.00,VWS V14.01,2013-02-17 12:07:00,
2013-02-17 07:08:00,14.0,0.4,29.85,West,265,0.0,0.0,54,0.00,,,0.00,0.00,VWS V14.01,2013-02-17 12:08:00,
2013-02-17 07:09:00,14.0,0.0,29.85,West,261,0.0,0.0,53,0.00,,,0.00,0.00,VWS V14.01,2013-02-17 12:09:00,
2013-02-17 07:10:00,14.0,0.4,29.85,West,263,0.0,0.0,54,0.00,,,0.00,0.00,VWS V14.01,2013-02-17 12:10:00,
2013-02-17 07:11:00,13.8,0.2,29.85,SW,215,0.0,0.0,54,0.00,,,0.00,0.00,VWS V14.01,2013-02-17 12:11:00,
2013-02-17 07:12:00,13.8,0.2,29.85,WNW,288,0.0,0.0,54,0.00,,,0.00,0.00,VWS V14.01,2013-02-17 12:12:00,
2013-02-17 07:13:00,13.8,0.2,29.85,WNW,296,0.0,0.0,54,0.00,,,0.00,0.00,VWS V14.01,2013-02-17 12:13:00,
2013-02-17 07:14:00,13.8,0.2,29.85,SW,233,0.0,0.0,54,0.00,,,0.00,0.00,VWS V14.01,2013-02-17 12:14:00,
2013-02-17 07:15:00,14.0,0.4,29.85,West,263,0.0,0.0,54,0.00,,,0.00,0.00,VWS V14.01,2013-02-17 12:15:00,
2013-02-17 07:16:00,13.8,-0.2,29.85,SW,232,0.0,0.0,53,0.00,,,0.00,0.00,VWS V14.01,2013-02-17 12:16:00,
2013-02-17 07:17:00,13.8,-0.2,29.85,WSW,250,0.0,0.0,53,0.00,,,0.00,9.00,VWS V14.01,2013-02-17 12:17:00,
2013-02-17 07:18:00,14.0,0.0,29.85,South,189,0.0,0.0,53,0.00,,,0.00,9.00,VWS V14.01,2013-02-17 12:18:00,
2013-02-17 07:19:00,13.8,-0.2,29.85,West,264,0.0,0.0,53,0.00,,,0.00,9.00,VWS V14.01,2013-02-17 12:19:00,
2013-02-17 07:20:00,13.8,-0.2,29.85,West,270,0.0,0.0,53,0.00,,,0.00,0.00,VWS V14.01,2013-02-17 12:20:00,
2013-02-17 07:21:00,14.0,0.0,29.85,West,278,0.0,0.0,53,0.00,,,0.00,9.00,VWS V14.01,2013-02-17 12:21:00,
2013-02-17 07:22:00,14.0,0.0,29.85,SSW,210,0.0,0.0,53,0.00,,,0.00,11.00,VWS V14.01,2013-02-17 12:22:00,
2013-02-17 07:23:00,14.0,-0.4,29.85,WSW,246,0.0,0.0,52,0.00,,,0.00,11.00,VWS V14.01,2013-02-17 12:23:00,
2013-02-17 07:24:00,14.0,-0.4,29.85,West,268,0.0,0.0,52,0.00,,,0.00,11.00,VWS V14.01,2013-02-17 12:24:00,
2013-02-17 07:25:00,13.8,-0.2,29.85,West,281,0.0,0.0,53,0.00,,,0.00,9.00,VWS V14.01,2013-02-17 12:25:00,
2013-02-17 07:26:00,14.0,-0.4,29.85,West,263,0.0,0.0,52,0.00,,,0.00,14.00,VWS V14.01,2013-02-17 12:26:00,
2013-02-17 07:27:00,14.0,-0.4,29.85,West,263,0.0,0.0,52,0.00,,,0.00,14.00,VWS V14.01,2013-02-17 12:27:00,
2013-02-17 07:28:00,14.0,-0.4,29.85,West,274,0.0,0.0,52,0.00,,,0.00,14.00,VWS V14.01,2013-02-17 12:28:00,
2013-02-17 07:29:00,14.0,-0.4,29.85,WSW,247,0.0,0.0,52,0.00,,,0.00,26.00,VWS V14.01,2013-02-17 12:29:00,
2013-02-17 07:30:00,14.0,-0.4,29.86,West,281,0.0,0.0,52,0.00,,,0.00,26.00,VWS V14.01,2013-02-17 12:30:00,
2013-02-17 07:31:00,14.0,-0.4,29.85,West,263,0.0,0.0,52,0.00,,,0.00,14.00,VWS V14.01,2013-02-17 12:31:00,
2013-02-17 07:32:00,14.0,-0.4,29.86,WNW,282,0.0,0.0,52,0.00,,,0.00,26.00,VWS V14.01,2013-02-17 12:32:00,
2013-02-17 07:33:00,14.0,-0.4,29.86,WNW,282,0.0,0.0,52,0.00,,,0.00,26.00,VWS V14.01,2013-02-17 12:33:00,
2013-02-17 07:34:00,14.0,-0.4,29.86,WNW,282,0.0,0.0,52,0.00,,,0.00,26.00,VWS V14.01,2013-02-17 12:34:00,
2013-02-17 07:35:00,14.0,-0.4,29.86,West,272,0.0,0.0,52,0.00,,,0.00,39.00,VWS V14.01,2013-02-17 12:35:00,
2013-02-17 07:36:00,14.0,0.0,29.86,West,272,0.0,0.0,53,0.00,,,0.00,26.00,VWS V14.01,2013-02-17 12:36:00,
2013-02-17 07:37:00,14.0,-0.4,29.86,West,272,0.0,0.0,52,0.00,,,0.00,72.00,VWS V14.01,2013-02-17 12:37:00,
2013-02-17 07:38:00,14.0,-0.4,29.86,SW,236,0.0,0.0,52,0.00,,,0.00,86.00,VWS V14.01,2013-02-17 12:38:00,
2013-02-17 07:39:00,14.0,-0.4,29.86,WSW,240,0.0,0.0,52,0.00,,,0.00,91.00,VWS V14.01,2013-02-17 12:39:00,
2013-02-17 07:40:00,14.1,-0.3,29.86,West,281,0.0,0.0,52,0.00,,,0.00,91.00,VWS V14.01,2013-02-17 12:40:00,
2013-02-17 07:41:00,14.1,-0.3,29.86,West,271,0.0,0.0,52,0.00,,,0.00,97.00,VWS V14.01,2013-02-17 12:41:00,
2013-02-17 07:42:00,14.0,-0.4,29.86,West,272,0.0,0.0,52,0.00,,,0.00,72.00,VWS V14.01,2013-02-17 12:42:00,
2013-02-17 07:43:00,14.1,-0.3,29.86,West,267,0.0,0.0,52,0.00,,,0.00,67.00,VWS V14.01,2013-02-17 12:43:00,
2013-02-17 07:44:00,14.1,-0.3,29.86,WSW,254,0.0,0.0,52,0.00,,,0.00,63.00,VWS V14.01,2013-02-17 12:44:00,
2013-02-17 07:45:00,14.1,-0.3,29.87,WSW,257,0.0,0.0,52,0.00,,,0.00,84.00,VWS V14.01,2013-02-17 12:45:00,
2013-02-17 07:46:00,14.1,-0.3,29.87,West,270,0.0,0.0,52,0.00,,,0.00,81.00,VWS V14.01,2013-02-17 12:46:00,
2013-02-17 07:47:00,14.1,-0.3,29.86,WSW,240,0.0,0.0,52,0.00,,,0.00,90.00,VWS V14.01,2013-02-17 12:47:00,
2013-02-17 07:48:00,14.1,-0.3,29.87,West,272,0.0,0.0,52,0.00,,,0.00,51.00,VWS V14.01,2013-02-17 12:48:00,
2013-02-17 07:49:00,14.1,-0.3,29.87,West,261,0.0,0.0,52,0.00,,,0.00,55.00,VWS V14.01,2013-02-17 12:49:00,
2013-02-17 07:50:00,14.1,-0.3,29.87,West,278,0.0,0.0,52,0.00,,,0.00,84.00,VWS V14.01,2013-02-17 12:50:00,
2013-02-17 07:51:00,14.1,-0.3,29.87,SW,229,0.0,0.0,52,0.00,,,0.00,83.00,VWS V14.01,2013-02-17 12:51:00,
2013-02-17 07:52:00,14.1,0.1,29.87,WSW,250,0.0,0.0,53,0.00,,,0.00,62.00,VWS V14.01,2013-02-17 12:52:00,
2013-02-17 07:53:00,14.1,-0.3,29.87,West,272,0.0,0.0,52,0.00,,,0.00,51.00,VWS V14.01,2013-02-17 12:53:00,
2013-02-17 07:54:00,14.1,0.1,29.87,SSW,196,0.0,0.0,53,0.00,,,0.00,46.00,VWS V14.01,2013-02-17 12:54:00,
2013-02-17 07:55:00,14.1,0.1,29.87,West,268,0.0,0.0,53,0.00,,,0.00,48.00,VWS V14.01,2013-02-17 12:55:00,
2013-02-17 07:56:00,14.1,0.1,29.87,WSW,257,0.0,0.0,53,0.00,,,0.00,49.00,VWS V14.01,2013-02-17 12:56:00,
2013-02-17 07:57:00,14.1,0.1,29.87,WSW,247,0.0,0.0,53,0.00,,,0.00,49.00,VWS V14.01,2013-02-17 12:57:00,
2013-02-17 07:58:00,14.1,0.1,29.87,WSW,251,0.0,0.0,53,0.00,,,0.00,51.00,VWS V14.01,2013-02-17 12:58:00,
2013-02-17 07:59:00,14.1,0.1,29.87,SSW,196,0.0,0.0,53,0.00,,,0.00,46.00,VWS V14.01,2013-02-17 12:59:00,
2013-02-17 08:00:00,14.1,0.1,29.87,WSW,239,0.0,0.0,53,0.00,,,0.00,55.00,VWS V14.01,2013-02-17 13:00:00,
2013-02-17 08:01:00,14.1,0.5,29.87,WSW,239,0.0,0.0,54,0.00,,,0.00,65.00,VWS V14.01,2013-02-17 13:01:00,
2013-02-17 08:02:00,14.1,0.5,29.87,WSW,250,0.0,0.0,54,0.00,,,0.00,63.00,VWS V14.01,2013-02-17 13:02:00,
2013-02-17 08:03:00,14.1,0.5,29.87,West,264,0.0,0.0,54,0.00,,,0.00,58.00,VWS V14.01,2013-02-17 13:03:00,
2013-02-17 08:04:00,14.1,0.5,29.87,West,261,0.0,0.0,54,0.00,,,0.00,51.00,VWS V14.01,2013-02-17 13:04:00,
2013-02-17 08:05:00,14.1,0.1,29.87,WSW,239,0.0,0.0,53,0.00,,,0.00,55.00,VWS V14.01,2013-02-17 13:05:00,
2013-02-17 08:06:00,14.1,0.5,29.87,WNW,302,0.0,0.0,54,0.00,,,0.00,46.00,VWS V14.01,2013-02-17 13:06:00,
2013-02-17 08:07:00,14.1,0.5,29.87,WSW,257,0.0,0.0,54,0.00,,,0.00,48.00,VWS V14.01,2013-02-17 13:07:00,
2013-02-17 08:08:00,14.1,0.5,29.87,West,272,0.0,0.0,54,0.00,,,0.00,51.00,VWS V14.01,2013-02-17 13:08:00,
2013-02-17 08:09:00,14.1,0.5,29.87,SSW,208,0.0,0.0,54,0.00,,,0.00,49.00,VWS V14.01,2013-02-17 13:09:00,
2013-02-17 08:10:00,14.1,0.5,29.87,WNW,295,0.0,0.0,54,0.00,,,0.00,62.00,VWS V14.01,2013-02-17 13:10:00,
2013-02-17 08:11:00,14.1,0.5,29.87,WNW,302,0.0,0.0,54,0.00,,,0.00,46.00,VWS V14.01,2013-02-17 13:11:00,
2013-02-17 08:12:00,14.1,0.5,29.87,NW,320,0.0,0.0,54,0.00,,,0.00,83.00,VWS V14.01,2013-02-17 13:12:00,
2013-02-17 08:13:00,14.1,0.5,29.87,West,278,0.0,0.0,54,0.00,,,0.00,65.00,VWS V14.01,2013-02-17 13:13:00,
2013-02-17 08:14:00,14.1,0.5,29.87,WSW,253,0.0,0.0,54,0.00,,,0.00,56.00,VWS V14.01,2013-02-17 13:14:00,
2013-02-17 08:15:00,14.1,0.9,29.89,West,271,0.0,0.0,55,0.00,,,0.00,56.00,VWS V14.01,2013-02-17 13:15:00,
2013-02-17 08:16:00,14.1,0.9,29.89,West,277,0.0,0.0,55,0.00,,,0.00,63.00,VWS V14.01,2013-02-17 13:16:00,
2013-02-17 08:17:00,14.1,0.5,29.87,NW,320,0.0,0.0,54,0.00,,,0.00,83.00,VWS V14.01,2013-02-17 13:17:00,
2013-02-17 08:18:00,14.1,0.9,29.89,West,267,0.0,0.0,55,0.00,,,0.00,81.00,VWS V14.01,2013-02-17 13:18:00,
2013-02-17 08:19:00,14.1,0.5,29.89,WSW,251,0.0,0.0,54,0.00,,,0.00,77.00,VWS V14.01,2013-02-17 13:19:00,
2013-02-17 08:20:00,14.1,0.9,29.89,West,260,0.0,0.0,55,0.00,,,0.00,70.00,VWS V14.01,2013-02-17 13:20:00,
2013-02-17 08:21:00,14.1,0.9,29.89,WSW,258,0.0,0.0,55,0.00,,,0.00,69.00,VWS V14.01,2013-02-17 13:21:00,
2013-02-17 08:22:00,14.1,0.9,29.89,WSW,257,0.0,0.0,55,0.00,,,0.00,72.00,VWS V14.01,2013-02-17 13:22:00,
2013-02-17 08:23:00,14.1,0.9,29.89,West,267,0.0,0.0,55,0.00,,,0.00,81.00,VWS V14.01,2013-02-17 13:23:00,
2013-02-17 08:24:00,14.1,0.9,29.89,WSW,248,0.0,0.0,55,0.00,,,0.00,84.00,VWS V14.01,2013-02-17 13:24:00,
2013-02-17 08:25:00,14.1,0.9,29.89,WSW,244,0.0,0.0,55,0.00,,,0.00,84.00,VWS V14.01,2013-02-17 13:25:00,
2013-02-17 08:26:00,14.1,0.9,29.89,SW,236,0.0,0.0,55,0.00,,,0.00,81.00,VWS V14.01,2013-02-17 13:26:00,
2013-02-17 08:27:00,14.1,0.9,29.89,West,267,0.0,0.0,55,0.00,,,0.00,81.00,VWS V14.01,2013-02-17 13:27:00,
2013-02-17 08:28:00,14.1,0.9,29.89,SW,229,0.0,0.0,55,0.00,,,0.00,72.00,VWS V14.01,2013-02-17 13:28:00,
2013-02-17 08:29:00,14.1,0.9,29.89,WNW,282,0.0,0.0,55,0.00,,,0.00,93.00,VWS V14.01,2013-02-17 13:29:00,
2013-02-17 08:30:00,14.1,0.9,29.89,WSW,256,0.0,0.0,55,0.00,,,0.00,93.00,VWS V14.01,2013-02-17 13:30:00,
2013-02-17 08:31:00,14.1,0.9,29.89,West,270,0.0,0.0,55,0.00,,,0.00,93.00,VWS V14.01,2013-02-17 13:31:00,
2013-02-17 08:32:00,14.1,0.9,29.89,West,270,0.0,0.0,55,0.00,,,0.00,93.00,VWS V14.01,2013-02-17 13:32:00,
2013-02-17 08:33:00,14.3,1.5,29.89,SSW,212,0.0,0.0,56,0.00,,,0.00,93.00,VWS V14.01,2013-02-17 13:33:00,
2013-02-17 08:34:00,14.1,0.9,29.89,WNW,282,0.0,0.0,55,0.00,,,0.00,93.00,VWS V14.01,2013-02-17 13:34:00,
2013-02-17 08:35:00,14.3,1.5,29.89,West,278,0.0,0.0,56,0.00,,,0.00,99.00,VWS V14.01,2013-02-17 13:35:00,
2013-02-17 08:36:00,14.3,1.5,29.89,WSW,254,0.0,0.0,56,0.00,,,0.00,104.00,VWS V14.01,2013-02-17 13:36:00,
2013-02-17 08:37:00,14.3,1.5,29.89,WNW,284,0.0,0.0,56,0.00,,,0.00,104.00,VWS V14.01,2013-02-17 13:37:00,
2013-02-17 08:38:00,14.3,1.5,29.89,West,272,0.0,0.0,56,0.00,,,0.00,100.00,VWS V14.01,2013-02-17 13:38:00,
2013-02-17 08:39:00,14.3,1.5,29.89,West,281,0.0,0.0,56,0.00,,,0.00,77.00,VWS V14.01,2013-02-17 13:39:00,
2013-02-17 08:40:00,14.3,1.5,29.89,West,278,0.0,0.0,56,0.00,,,0.00,99.00,VWS V14.01,2013-02-17 13:40:00,
2013-02-17 08:41:00,14.3,1.5,29.89,West,270,0.0,0.0,56,0.00,,,0.00,88.00,VWS V14.01,2013-02-17 13:41:00,
2013-02-17 08:42:00,14.3,1.5,29.89,SSW,195,0.0,0.0,56,0.00,,,0.00,160.00,VWS V14.01,2013-02-17 13:42:00,
2013-02-17 08:43:00,14.4,1.6,29.89,WNW,285,0.0,0.0,56,0.00,,,0.00,148.00,VWS V14.01,2013-02-17 13:43:00,
2013-02-17 08:44:00,14.4,1.6,29.89,NW,320,0.0,0.0,56,0.00,,,0.00,128.00,VWS V14.01,2013-02-17 13:44:00,
2013-02-17 08:45:00,14.4,1.6,29.90,West,267,0.0,0.0,56,0.00,,,0.00,137.00,VWS V14.01,2013-02-17 13:45:00,
2013-02-17 08:46:00,14.3,1.5,29.89,West,270,0.0,0.0,56,0.00,,,0.00,88.00,VWS V14.01,2013-02-17 13:46:00,
2013-02-17 08:47:00,14.6,1.4,29.90,West,268,0.0,0.0,55,0.00,,,0.00,148.00,VWS V14.01,2013-02-17 13:47:00,
2013-02-17 08:48:00,14.6,1.4,29.90,WSW,247,0.0,0.0,55,0.00,,,0.00,123.00,VWS V14.01,2013-02-17 13:48:00,
2013-02-17 08:49:00,14.6,1.8,29.90,SSW,199,0.0,0.0,56,0.00,,,0.00,144.00,VWS V14.01,2013-02-17 13:49:00,
2013-02-17 08:50:00,14.6,1.4,29.90,WSW,251,0.0,0.0,55,0.00,,,0.00,144.00,VWS V14.01,2013-02-17 13:50:00,
2013-02-17 08:51:00,14.4,1.2,29.90,West,281,0.0,0.0,55,0.00,,,0.00,151.00,VWS V14.01,2013-02-17 13:51:00,
2013-02-17 08:52:00,14.6,1.0,29.90,NW,311,0.0,0.0,54,0.00,,,0.00,130.00,VWS V14.01,2013-02-17 13:52:00,
2013-02-17 08:53:00,14.8,1.2,29.90,West,277,0.0,0.0,54,0.00,,,0.00,141.00,VWS V14.01,2013-02-17 13:53:00,
2013-02-17 08:54:00,14.8,1.6,29.90,WSW,254,0.0,0.0,55,0.00,,,0.00,264.00,VWS V14.01,2013-02-17 13:54:00,
2013-02-17 08:55:00,14.8,1.6,29.90,WSW,254,0.0,0.0,55,0.00,,,0.00,264.00,VWS V14.01,2013-02-17 13:55:00,
2013-02-17 08:56:00,14.6,1.4,29.90,West,263,0.0,0.0,55,0.00,,,0.00,144.00,VWS V14.01,2013-02-17 13:56:00,
2013-02-17 08:57:00,14.9,1.7,29.90,WSW,240,0.0,0.0,55,0.00,,,0.00,278.00,VWS V14.01,2013-02-17 13:57:00,
2013-02-17 08:58:00,14.9,1.3,29.90,WSW,244,0.0,0.0,54,0.00,,,0.00,278.00,VWS V14.01,2013-02-17 13:58:00,
2013-02-17 08:59:00,14.9,1.3,29.90,West,260,0.0,0.0,54,0.00,,,0.00,278.00,VWS V14.01,2013-02-17 13:59:00,
2013-02-17 09:00:00,14.9,1.3,29.89,West,274,0.0,0.0,54,0.00,,,0.00,278.00,VWS V14.01,2013-02-17 14:00:00,
2013-02-17 09:01:00,14.9,1.7,29.90,WNW,295,0.0,0.0,55,0.00,,,0.00,278.00,VWS V14.01,2013-02-17 14:01:00,
2013-02-17 09:02:00,15.1,1.5,29.89,West,268,0.0,0.0,54,0.00,,,0.00,222.00,VWS V14.01,2013-02-17 14:02:00,
2013-02-17 09:03:00,15.1,1.5,29.89,SW,230,0.0,0.0,54,0.00,,,0.00,201.00,VWS V14.01,2013-02-17 14:03:00,
2013-02-17 09:04:00,15.2,1.5,29.89,SSW,200,0.0,0.0,54,0.00,,,0.00,245.00,VWS V14.01,2013-02-17 14:04:00,
2013-02-17 09:05:00,15.2,1.5,29.89,WSW,253,0.0,0.0,54,0.00,,,0.00,283.00,VWS V14.01,2013-02-17 14:05:00,
2013-02-17 09:06:00,15.2,1.1,29.89,WSW,248,0.0,0.0,53,0.00,,,0.00,322.00,VWS V14.01,2013-02-17 14:06:00,
2013-02-17 09:07:00,15.1,1.5,29.89,West,268,0.0,0.0,54,0.00,,,0.00,222.00,VWS V14.01,2013-02-17 14:07:00,
2013-02-17 09:08:00,15.2,1.1,29.89,South,189,0.0,0.0,53,0.00,,,0.00,334.00,VWS V14.01,2013-02-17 14:08:00,
2013-02-17 09:09:00,15.4,1.7,29.89,WSW,253,0.0,0.0,54,0.00,,,0.00,306.00,VWS V14.01,2013-02-17 14:09:00,
2013-02-17 09:10:00,15.4,1.3,29.89,WSW,239,0.0,0.0,53,0.00,,,0.00,290.00,VWS V14.01,2013-02-17 14:10:00,
2013-02-17 09:11:00,15.4,1.3,29.89,WNW,282,0.0,0.0,53,0.00,,,0.00,260.00,VWS V14.01,2013-02-17 14:11:00,
2013-02-17 09:12:00,15.2,1.5,29.89,WSW,246,0.0,0.0,54,0.00,,,0.00,334.00,VWS V14.01,2013-02-17 14:12:00,
2013-02-17 09:13:00,15.6,1.9,29.89,WNW,292,0.0,0.0,54,0.00,,,0.00,289.00,VWS V14.01,2013-02-17 14:13:00,
2013-02-17 09:14:00,15.6,1.9,29.89,WSW,251,0.0,0.0,54,0.00,,,0.00,282.00,VWS V14.01,2013-02-17 14:14:00,
2013-02-17 09:15:00,15.6,1.9,29.90,West,272,0.0,0.0,54,0.00,,,0.00,282.00,VWS V14.01,2013-02-17 14:15:00,
2013-02-17 09:16:00,15.7,2.0,29.90,WNW,285,0.0,0.0,54,0.00,,,0.00,282.00,VWS V14.01,2013-02-17 14:16:00,
2013-02-17 09:17:00,15.7,2.0,29.90,West,268,0.0,0.0,54,0.00,,,0.00,216.00,VWS V14.01,2013-02-17 14:17:00,
2013-02-17 09:18:00,15.6,1.9,29.89,WNW,292,0.0,0.0,54,0.00,,,0.00,289.00,VWS V14.01,2013-02-17 14:18:00,
2013-02-17 09:19:00,15.7,2.0,29.90,WSW,251,0.0,0.0,54,0.00,,,0.00,158.00,VWS V14.01,2013-02-17 14:19:00,
2013-02-17 09:20:00,15.9,2.2,29.90,WNW,294,0.0,0.0,54,0.00,,,0.00,158.00,VWS V14.01,2013-02-17 14:20:00,
2013-02-17 09:21:00,15.9,2.2,29.90,SSE,154,0.0,0.0,54,0.00,,,0.00,158.00,VWS V14.01,2013-02-17 14:21:00,
2013-02-17 09:22:00,15.9,1.8,29.90,SW,217,0.0,0.0,53,0.00,,,0.00,262.00,VWS V14.01,2013-02-17 14:22:00,
2013-02-17 09:23:00,15.7,2.0,29.90,WNW,302,0.0,0.0,54,0.00,,,0.00,185.00,VWS V14.01,2013-02-17 14:23:00,
2013-02-17 09:24:00,15.9,1.4,29.90,SSW,192,0.0,0.0,52,0.00,,,0.00,262.00,VWS V14.01,2013-02-17 14:24:00,
2013-02-17 09:25:00,15.9,1.8,29.90,SSW,213,0.0,0.0,53,0.00,,,0.00,262.00,VWS V14.01,2013-02-17 14:25:00,
2013-02-17 09:26:00,15.9,1.4,29.90,WSW,250,0.0,0.0,52,0.00,,,0.00,252.00,VWS V14.01,2013-02-17 14:26:00,
2013-02-17 09:27:00,15.9,1.8,29.90,West,277,0.0,0.0,53,0.00,,,0.00,271.00,VWS V14.01,2013-02-17 14:27:00,
2013-02-17 09:28:00,15.7,1.2,29.90,West,260,0.0,0.0,52,0.00,,,0.00,271.00,VWS V14.01,2013-02-17 14:28:00,
2013-02-17 09:29:00,15.9,1.4,29.90,SSW,192,0.0,0.0,52,0.00,,,0.00,262.00,VWS V14.01,2013-02-17 14:29:00,
2013-02-17 09:30:00,15.7,1.2,29.90,WSW,247,0.0,0.0,52,0.00,,,0.00,230.00,VWS V14.01,2013-02-17 14:30:00,
2013-02-17 09:31:00,15.7,1.2,29.90,WSW,258,0.0,0.0,52,0.00,,,0.00,230.00,VWS V14.01,2013-02-17 14:31:00,
2013-02-17 09:32:00,15.9,1.8,29.90,WSW,250,0.0,0.0,53,0.00,,,0.00,106.00,VWS V14.01,2013-02-17 14:32:00,
2013-02-17 09:33:00,15.9,1.8,29.90,SW,236,0.0,0.0,53,0.00,,,0.00,106.00,VWS V14.01,2013-02-17 14:33:00,
2013-02-17 09:34:00,15.7,1.2,29.90,West,263,0.0,0.0,52,0.00,,,0.00,271.00,VWS V14.01,2013-02-17 14:34:00,
2013-02-17 09:35:00,16.1,1.6,29.90,WSW,251,0.0,0.0,52,0.00,,,0.00,329.00,VWS V14.01,2013-02-17 14:35:00,
2013-02-17 09:36:00,16.1,1.6,29.90,West,270,0.0,0.0,52,0.00,,,0.00,329.00,VWS V14.01,2013-02-17 14:36:00,
2013-02-17 09:37:00,15.9,1.0,29.90,West,268,0.0,0.0,51,0.00,,,0.00,329.00,VWS V14.01,2013-02-17 14:37:00,
2013-02-17 09:38:00,16.1,1.6,29.90,WNW,291,0.0,0.0,52,0.00,,,0.00,225.00,VWS V14.01,2013-02-17 14:38:00,
2013-02-17 09:39:00,16.1,1.6,29.90,WSW,250,0.0,0.0,52,0.00,,,0.00,289.00,VWS V14.01,2013-02-17 14:39:00,
2013-02-17 09:40:00,16.1,1.6,29.90,WSW,251,0.0,0.0,52,0.00,,,0.00,329.00,VWS V14.01,2013-02-17 14:40:00,
2013-02-17 09:41:00,16.1,1.6,29.90,WNW,287,0.0,0.0,52,0.00,,,0.00,257.00,VWS V14.01,2013-02-17 14:41:00,
2013-02-17 09:42:00,16.1,1.2,29.90,WSW,248,0.0,0.0,51,0.00,,,0.00,257.00,VWS V14.01,2013-02-17 14:42:00,
2013-02-17 09:43:00,16.1,1.2,29.90,WNW,302,0.0,0.0,51,0.00,,,0.00,171.00,VWS V14.01,2013-02-17 14:43:00,
2013-02-17 09:44:00,16.1,1.6,29.90,WSW,246,0.0,0.0,52,0.00,,,0.00,128.00,VWS V14.01,2013-02-17 14:44:00,
2013-02-17 09:45:00,16.1,1.6,29.90,West,263,0.0,0.0,52,0.00,,,0.00,269.00,VWS V14.01,2013-02-17 14:45:00,
2013-02-17 09:46:00,16.2,1.7,29.90,WSW,246,0.0,0.0,52,0.00,,,0.00,192.00,VWS V14.01,2013-02-17 14:46:00,
2013-02-17 09:47:00,16.2,1.7,29.90,SW,227,0.0,0.0,52,0.00,,,0.00,271.00,VWS V14.01,2013-02-17 14:47:00,
2013-02-17 09:48:00,16.4,1.9,29.90,WSW,241,0.0,0.0,52,0.00,,,0.00,271.00,VWS V14.01,2013-02-17 14:48:00,
2013-02-17 09:49:00,16.4,1.9,29.90,WSW,257,0.0,0.0,52,0.00,,,0.00,176.00,VWS V14.01,2013-02-17 14:49:00,
2013-02-17 09:50:00,16.4,1.9,29.90,WSW,243,0.0,0.0,52,0.00,,,0.00,127.00,VWS V14.01,2013-02-17 14:50:00,
2013-02-17 09:51:00,16.2,1.7,29.90,WSW,246,0.0,0.0,52,0.00,,,0.00,192.00,VWS V14.01,2013-02-17 14:51:00,
2013-02-17 09:52:00,16.5,2.4,29.90,SW,233,0.0,0.0,53,0.00,,,0.00,127.00,VWS V14.01,2013-02-17 14:52:00,
2013-02-17 09:53:00,16.5,2.0,29.90,West,277,0.0,0.0,52,0.00,,,0.00,127.00,VWS V14.01,2013-02-17 14:53:00,
2013-02-17 09:54:00,16.5,1.1,29.90,SSW,210,0.0,0.0,50,0.00,,,0.00,194.00,VWS V14.01,2013-02-17 14:54:00,
2013-02-17 09:55:00,16.5,2.0,29.90,WSW,248,0.0,0.0,52,0.00,,,0.00,194.00,VWS V14.01,2013-02-17 14:55:00,
2013-02-17 09:56:00,16.5,2.0,29.90,SW,216,0.0,0.0,52,0.00,,,0.00,127.00,VWS V14.01,2013-02-17 14:56:00,
2013-02-17 09:57:00,16.5,2.0,29.90,West,274,0.0,0.0,52,0.00,,,0.00,377.00,VWS V14.01,2013-02-17 14:57:00,
2013-02-17 09:58:00,16.5,2.0,29.90,West,272,0.0,0.0,52,0.00,,,0.00,377.00,VWS V14.01,2013-02-17 14:58:00,
2013-02-17 09:59:00,16.5,2.0,29.90,West,272,0.0,0.0,52,0.00,,,0.00,377.00,VWS V14.01,2013-02-17 14:59:00,
2013-02-17 10:01:00,16.5,2.0,29.90,West,274,0.0,0.0,52,0.00,,,0.00,377.00,VWS V14.01,2013-02-17 15:01:00,
2013-02-17 10:04:00,16.9,1.9,29.91,West,274,0.0,0.0,51,0.00,,,0.00,334.00,VWS V14.01,2013-02-17 15:04:00,
2013-02-17 10:05:00,16.9,1.9,29.91,WSW,253,0.0,0.0,51,0.00,,,0.00,334.00,VWS V14.01,2013-02-17 15:05:00,
2013-02-17 10:06:00,16.9,1.9,29.91,WSW,256,0.0,0.0,51,0.00,,,0.00,301.00,VWS V14.01,2013-02-17 15:06:00,
2013-02-17 10:07:00,16.9,1.9,29.91,SSW,210,0.0,0.0,51,0.00,,,0.00,329.00,VWS V14.01,2013-02-17 15:07:00,
2013-02-17 10:08:00,16.9,1.9,29.91,West,275,0.0,0.0,51,0.00,,,0.00,329.00,VWS V14.01,2013-02-17 15:08:00,
2013-02-17 10:09:00,16.9,1.9,29.91,West,274,0.0,0.0,51,0.00,,,0.00,334.00,VWS V14.01,2013-02-17 15:09:00,
2013-02-17 10:10:00,16.7,1.3,29.91,SSE,157,0.0,0.0,50,0.00,,,0.00,396.00,VWS V14.01,2013-02-17 15:10:00,
2013-02-17 10:11:00,16.9,1.9,29.91,WSW,237,0.0,0.0,51,0.00,,,0.00,399.00,VWS V14.01,2013-02-17 15:11:00,
2013-02-17 10:12:00,16.9,1.9,29.91,SSW,212,0.0,0.0,51,0.00,,,0.00,399.00,VWS V14.01,2013-02-17 15:12:00,
2013-02-17 10:13:00,16.9,1.9,29.91,West,268,0.0,0.0,51,0.00,,,0.00,399.00,VWS V14.01,2013-02-17 15:13:00,
2013-02-17 10:14:00,16.7,1.3,29.91,WSW,250,0.0,0.0,50,0.00,,,0.00,385.00,VWS V14.01,2013-02-17 15:14:00,
2013-02-17 10:15:00,16.9,2.3,29.92,North,0,0.0,0.0,52,0.00,,,0.00,396.00,VWS V14.01,2013-02-17 15:15:00,
2013-02-17 10:16:00,17.0,2.4,29.92,North,0,0.0,0.0,52,0.00,,,0.00,398.00,VWS V14.01,2013-02-17 15:16:00,
2013-02-17 10:19:00,16.9,1.9,29.92,SSW,199,0.0,0.0,51,0.00,,,0.00,399.00,VWS V14.01,2013-02-17 15:19:00,
2013-02-17 10:26:00,17.2,2.2,29.92,North,0,0.0,0.0,51,0.00,,,0.00,396.00,VWS V14.01,2013-02-17 15:26:00,
2013-02-17 10:31:00,17.3,1.9,29.92,South,191,0.0,0.0,50,0.00,,,0.00,373.00,VWS V14.01,2013-02-17 15:31:00,
2013-02-17 10:36:00,16.9,1.5,29.92,WNW,288,0.0,0.0,50,0.00,,,0.00,329.00,VWS V14.01,2013-02-17 15:36:00,
2013-02-17 10:41:00,17.0,2.0,29.92,WNW,284,0.0,0.0,51,0.00,,,0.00,426.00,VWS V14.01,2013-02-17 15:41:00,
2013-02-17 10:46:00,17.3,1.9,29.92,West,267,0.0,0.0,50,0.00,,,0.00,421.00,VWS V14.01,2013-02-17 15:46:00,
2013-02-17 10:51:00,17.8,2.8,29.93,WSW,246,0.0,0.0,51,0.00,,,0.00,421.00,VWS V14.01,2013-02-17 15:51:00,
2013-02-17 10:56:00,17.7,1.8,29.93,SW,233,0.0,0.0,49,0.00,,,0.00,371.00,VWS V14.01,2013-02-17 15:56:00,
2013-02-17 11:02:00,17.7,3.1,29.93,WNW,282,0.0,0.0,52,0.00,,,0.00,391.00,VWS V14.01,2013-02-17 16:02:00,
2013-02-17 11:07:00,17.8,2.8,29.93,West,270,0.0,0.0,51,0.00,,,0.00,213.00,VWS V14.01,2013-02-17 16:07:00,
2013-02-17 11:13:00,17.7,2.7,29.93,WSW,258,0.0,0.0,51,0.00,,,0.00,484.00,VWS V14.01,2013-02-17 16:13:00,
2013-02-17 11:19:00,18.3,4.1,29.93,SSW,212,0.0,0.0,53,0.00,,,0.00,487.00,VWS V14.01,2013-02-17 16:19:00,
2013-02-17 11:24:00,18.4,2.9,29.94,West,274,0.0,0.0,50,0.00,,,0.00,486.00,VWS V14.01,2013-02-17 16:24:00,
2013-02-17 11:29:00,18.9,4.2,29.94,WSW,248,0.0,0.0,52,0.00,,,0.00,507.00,VWS V14.01,2013-02-17 16:29:00,
2013-02-17 11:35:00,19.4,3.8,29.94,SW,232,0.0,0.0,50,0.00,,,0.00,158.00,VWS V14.01,2013-02-17 16:35:00,
2013-02-17 11:41:00,19.2,2.7,29.94,West,270,0.0,0.0,48,0.00,,,0.00,289.00,VWS V14.01,2013-02-17 16:41:00,
2013-02-17 11:46:00,19.1,3.5,29.94,WSW,244,0.0,0.0,50,0.00,,,0.00,487.00,VWS V14.01,2013-02-17 16:46:00,
2013-02-17 11:52:00,19.7,4.5,29.94,WNW,287,0.0,0.0,51,0.00,,,0.00,493.00,VWS V14.01,2013-02-17 16:52:00,
2013-02-17 11:57:00,19.9,3.8,29.94,WSW,253,0.0,0.0,49,0.00,,,0.00,500.00,VWS V14.01,2013-02-17 16:57:00,
2013-02-17 12:03:00,20.2,3.2,29.94,SW,226,0.0,0.0,47,0.00,,,0.00,167.00,VWS V14.01,2013-02-17 17:03:00,
2013-02-17 12:08:00,20.0,2.6,29.94,NW,312,0.0,0.0,46,0.00,,,0.00,169.00,VWS V14.01,2013-02-17 17:08:00,
2013-02-17 12:14:00,20.0,3.0,29.94,West,261,0.0,0.0,47,0.00,,,0.00,524.00,VWS V14.01,2013-02-17 17:14:00,
2013-02-17 12:19:00,19.7,3.7,29.94,West,261,0.0,0.0,49,0.00,,,0.00,225.00,VWS V14.01,2013-02-17 17:19:00,
2013-02-17 12:25:00,20.6,4.9,29.93,South,176,0.0,0.0,50,0.00,,,0.00,542.00,VWS V14.01,2013-02-17 17:25:00,
2013-02-17 12:30:00,21.4,4.8,29.93,West,271,0.0,0.0,48,0.00,,,0.00,493.00,VWS V14.01,2013-02-17 17:30:00,
2013-02-17 12:35:00,21.0,3.9,29.93,NW,306,0.0,0.0,47,0.00,,,0.00,222.00,VWS V14.01,2013-02-17 17:35:00,
2013-02-17 12:41:00,21.4,5.7,29.93,West,260,0.0,0.0,50,0.00,,,0.00,521.00,VWS V14.01,2013-02-17 17:41:00,
2013-02-17 12:47:00,21.1,4.0,29.93,West,261,0.0,0.0,47,0.00,,,0.00,565.00,VWS V14.01,2013-02-17 17:47:00,
2013-02-17 12:52:00,21.1,3.6,29.92,NW,322,0.0,0.0,46,0.00,,,0.00,561.00,VWS V14.01,2013-02-17 17:52:00,
2013-02-17 12:58:00,21.6,3.5,29.92,West,281,0.0,0.0,45,0.00,,,0.00,545.00,VWS V14.01,2013-02-17 17:58:00,
2013-02-17 13:03:00,21.9,5.2,29.92,WSW,253,0.0,0.0,48,0.00,,,0.00,556.00,VWS V14.01,2013-02-17 18:03:00,
2013-02-17 13:08:00,23.0,5.3,29.91,WSW,257,0.0,0.0,46,0.00,,,0.00,552.00,VWS V14.01,2013-02-17 18:08:00,
2013-02-17 13:14:00,23.8,4.6,29.91,NW,312,0.0,0.0,43,0.00,,,0.00,554.00,VWS V14.01,2013-02-17 18:14:00,
2013-02-17 13:19:00,22.9,3.8,29.91,NW,309,0.0,0.0,43,0.00,,,0.00,538.00,VWS V14.01,2013-02-17 18:19:00,
2013-02-17 13:25:00,23.5,5.8,29.91,South,181,0.0,0.0,46,0.00,,,0.00,582.00,VWS V14.01,2013-02-17 18:25:00,
2013-02-17 13:30:00,24.1,5.3,29.91,WSW,237,0.0,0.0,44,0.00,,,0.00,570.00,VWS V14.01,2013-02-17 18:30:00,
2013-02-17 13:35:00,24.7,4.4,29.91,West,265,0.0,0.0,41,0.00,,,0.00,561.00,VWS V14.01,2013-02-17 18:35:00,
2013-02-17 13:41:00,23.6,4.4,29.91,WNW,282,0.0,0.0,43,0.00,,,0.00,558.00,VWS V14.01,2013-02-17 18:41:00,
2013-02-17 13:47:00,24.2,4.4,29.91,West,275,0.0,0.0,42,0.00,,,0.00,565.00,VWS V14.01,2013-02-17 18:47:00,
2013-02-17 13:52:00,24.7,4.9,29.90,South,186,0.0,0.0,42,0.00,,,0.00,563.00,VWS V14.01,2013-02-17 18:52:00,
2013-02-17 13:57:00,25.1,5.2,29.90,South,185,0.0,0.0,42,0.00,,,0.00,560.00,VWS V14.01,2013-02-17 18:57:00,
2013-02-17 14:03:00,25.8,5.4,29.90,West,261,0.0,0.0,41,0.00,,,0.00,568.00,VWS V14.01,2013-02-17 19:03:00,
2013-02-17 14:08:00,25.1,4.7,29.90,West,267,0.0,0.0,41,0.00,,,0.00,259.00,VWS V14.01,2013-02-17 19:08:00,
2013-02-17 14:14:00,24.5,4.7,29.90,WSW,256,0.0,0.0,42,0.00,,,0.00,609.00,VWS V14.01,2013-02-17 19:14:00,
2013-02-17 14:19:00,24.5,4.7,29.90,WSW,256,0.0,0.0,42,0.00,,,0.00,582.00,VWS V14.01,2013-02-17 19:19:00,
2013-02-17 14:24:00,23.8,4.6,29.92,West,271,0.0,0.0,43,0.00,,,0.00,554.00,VWS V14.01,2013-02-17 19:24:00,
2013-02-17 14:29:00,23.2,4.5,29.92,West,272,0.0,0.0,44,0.00,,,0.00,574.00,VWS V14.01,2013-02-17 19:29:00,
2013-02-17 14:35:00,22.7,4.1,29.92,WSW,251,0.0,0.0,44,0.00,,,0.00,313.00,VWS V14.01,2013-02-17 19:35:00,
2013-02-17 14:40:00,23.2,5.0,29.92,West,263,0.0,0.0,45,0.00,,,0.00,313.00,VWS V14.01,2013-02-17 19:40:00,
2013-02-17 14:46:00,23.5,3.8,29.92,West,274,0.0,0.0,42,0.00,,,0.00,552.00,VWS V14.01,2013-02-17 19:46:00,
2013-02-17 14:51:00,23.8,4.6,29.92,WNW,285,0.0,0.0,43,0.00,,,0.00,547.00,VWS V14.01,2013-02-17 19:51:00,
2013-02-17 14:57:00,24.7,4.9,29.92,WNW,284,0.0,0.0,42,0.00,,,0.00,537.00,VWS V14.01,2013-02-17 19:57:00,
2013-02-17 15:03:00,24.7,5.4,29.92,WSW,246,0.0,0.0,43,0.00,,,0.00,530.00,VWS V14.01,2013-02-17 20:03:00,
2013-02-17 15:08:00,24.7,5.4,29.93,SE,137,0.0,0.0,43,0.00,,,0.00,547.00,VWS V14.01,2013-02-17 20:08:00,
2013-02-17 15:13:00,25.1,5.2,29.93,NNW,332,0.0,0.0,42,0.00,,,0.00,531.00,VWS V14.01,2013-02-17 20:13:00,
2013-02-17 15:19:00,25.6,6.2,29.93,WSW,248,0.0,0.0,43,0.00,,,0.00,178.00,VWS V14.01,2013-02-17 20:19:00,
2013-02-17 15:24:00,25.1,5.8,29.92,WNW,288,0.0,0.0,43,0.00,,,0.00,238.00,VWS V14.01,2013-02-17 20:24:00,
2013-02-17 15:30:00,24.2,5.4,29.92,NW,305,0.0,0.0,44,0.00,,,0.00,185.00,VWS V14.01,2013-02-17 20:30:00,
2013-02-17 15:36:00,23.8,5.6,29.93,West,264,0.0,0.0,45,0.00,,,0.00,498.00,VWS V14.01,2013-02-17 20:36:00,
2013-02-17 15:41:00,23.8,5.6,29.93,West,274,0.0,0.0,45,0.00,,,0.00,246.00,VWS V14.01,2013-02-17 20:41:00,
2013-02-17 15:46:00,23.9,5.7,29.93,WSW,247,0.0,0.0,45,0.00,,,0.00,174.00,VWS V14.01,2013-02-17 20:46:00,
2013-02-17 15:52:00,24.2,5.4,29.94,West,267,0.0,0.0,44,0.00,,,0.00,475.00,VWS V14.01,2013-02-17 20:52:00,
2013-02-17 15:57:00,24.4,5.6,29.94,WSW,253,0.0,0.0,44,0.00,,,0.00,165.00,VWS V14.01,2013-02-17 20:57:00,
2013-02-17 16:03:00,23.9,5.2,29.94,West,278,0.0,0.0,44,0.00,,,0.00,394.00,VWS V14.01,2013-02-17 21:03:00,
2013-02-17 16:08:00,23.6,4.9,29.95,West,260,0.0,0.0,44,0.00,,,0.00,401.00,VWS V14.01,2013-02-17 21:08:00,
2013-02-17 16:14:00,23.3,4.6,29.95,SSW,212,0.0,0.0,44,0.00,,,0.00,345.00,VWS V14.01,2013-02-17 21:14:00,
2013-02-17 16:19:00,23.2,4.5,29.95,SW,233,0.0,0.0,44,0.00,,,0.00,213.00,VWS V14.01,2013-02-17 21:19:00,
2013-02-17 16:24:00,23.2,4.5,29.96,WNW,295,0.0,0.0,44,0.00,,,0.00,324.00,VWS V14.01,2013-02-17 21:24:00,
2013-02-17 16:29:00,23.6,5.4,29.96,South,185,0.0,0.0,45,0.00,,,0.00,72.00,VWS V14.01,2013-02-17 21:29:00,
2013-02-17 16:34:00,23.9,5.2,29.96,West,271,0.0,0.0,44,0.00,,,0.00,276.00,VWS V14.01,2013-02-17 21:34:00,
2013-02-17 16:40:00,24.2,4.9,29.96,West,281,0.0,0.0,43,0.00,,,0.00,262.00,VWS V14.01,2013-02-17 21:40:00,
2013-02-17 16:46:00,24.1,4.8,29.96,West,265,0.0,0.0,43,0.00,,,0.00,245.00,VWS V14.01,2013-02-17 21:46:00,
2013-02-17 16:51:00,24.1,4.8,29.96,NW,318,0.0,0.0,43,0.00,,,0.00,218.00,VWS V14.01,2013-02-17 21:51:00,
2013-02-17 16:57:00,23.6,4.4,29.96,West,267,0.0,0.0,43,0.00,,,0.00,192.00,VWS V14.01,2013-02-17 21:57:00,
2013-02-17 17:02:00,24.1,5.8,29.96,SW,226,0.0,0.0,45,0.00,,,0.00,171.00,VWS V14.01,2013-02-17 22:02:00,
2013-02-17 17:07:00,24.2,4.9,29.96,West,274,0.0,0.0,43,0.00,,,0.00,151.00,VWS V14.01,2013-02-17 22:07:00,
2013-02-17 17:13:00,23.9,5.2,29.96,West,267,0.0,0.0,44,0.00,,,0.00,125.00,VWS V14.01,2013-02-17 22:13:00,
2013-02-17 17:19:00,23.9,5.2,29.96,WSW,241,0.0,0.0,44,0.00,,,0.00,84.00,VWS V14.01,2013-02-17 22:19:00,
2013-02-17 17:25:00,23.8,5.1,29.97,West,267,0.0,0.0,44,0.00,,,0.00,53.00,VWS V14.01,2013-02-17 22:25:00,
2013-02-17 17:30:00,23.6,4.9,29.97,WSW,248,0.0,0.0,44,0.00,,,0.00,35.00,VWS V14.01,2013-02-17 22:30:00,
2013-02-17 17:36:00,23.6,4.9,29.97,West,260,0.0,0.0,44,0.00,,,0.00,32.00,VWS V14.01,2013-02-17 22:36:00,
2013-02-17 17:42:00,23.5,4.8,29.97,SW,234,0.0,0.0,44,0.00,,,0.00,23.00,VWS V14.01,2013-02-17 22:42:00,
2013-02-17 17:48:00,23.5,5.3,29.97,SW,227,0.0,0.0,45,0.00,,,0.00,14.00,VWS V14.01,2013-02-17 22:48:00,
2013-02-17 17:54:00,23.2,5.0,29.98,West,263,0.0,0.0,45,0.00,,,0.00,11.00,VWS V14.01,2013-02-17 22:54:00,
2013-02-17 18:00:00,23.0,5.3,29.98,SSW,203,0.0,0.0,46,0.00,,,0.00,0.00,VWS V14.01,2013-02-17 23:00:00,
2013-02-17 18:05:00,22.9,5.2,29.99,SSW,196,0.0,0.0,46,0.00,,,0.00,0.00,VWS V14.01,2013-02-17 23:05:00,
2013-02-17 18:11:00,22.7,5.0,29.99,WSW,244,0.0,0.0,46,0.00,,,0.00,0.00,VWS V14.01,2013-02-17 23:11:00,
2013-02-17 18:17:00,22.4,5.2,29.99,South,179,0.0,0.0,47,0.00,,,0.00,0.00,VWS V14.01,2013-02-17 23:17:00,
2013-02-17 18:23:00,22.2,5.5,30.00,West,271,0.0,0.0,48,0.00,,,0.00,0.00,VWS V14.01,2013-02-17 23:23:00,
2013-02-17 18:29:00,22.1,5.4,30.00,WNW,282,0.0,0.0,48,0.00,,,0.00,0.00,VWS V14.01,2013-02-17 23:29:00,
2013-02-17 18:35:00,22.1,5.4,30.00,SW,234,0.0,0.0,48,0.00,,,0.00,0.00,VWS V14.01,2013-02-17 23:35:00,
2013-02-17 18:40:00,21.9,5.2,30.00,WSW,258,0.0,0.0,48,0.00,,,0.00,0.00,VWS V14.01,2013-02-17 23:40:00,
2013-02-17 18:46:00,21.8,5.6,30.00,South,186,0.0,0.0,49,0.00,,,0.00,0.00,VWS V14.01,2013-02-17 23:46:00,
2013-02-17 18:51:00,21.8,5.6,30.01,WNW,299,0.0,0.0,49,0.00,,,0.00,0.00,VWS V14.01,2013-02-17 23:51:00,
2013-02-17 18:56:00,21.8,5.6,30.01,WSW,257,0.0,0.0,49,0.00,,,0.00,0.00,VWS V14.01,2013-02-17 23:56:00,
2013-02-17 19:02:00,21.6,5.4,30.01,WSW,239,0.0,0.0,49,0.00,,,0.00,0.00,VWS V14.01,2013-02-18 00:02:00,
2013-02-17 19:07:00,21.6,5.4,30.01,WSW,248,0.0,0.0,49,0.00,,,0.00,0.00,VWS V14.01,2013-02-18 00:07:00,
2013-02-17 19:13:00,21.4,5.7,30.01,WSW,251,0.0,0.0,50,0.00,,,0.00,0.00,VWS V14.01,2013-02-18 00:13:00,
2013-02-17 19:18:00,21.6,5.4,30.01,South,172,0.0,0.0,49,0.00,,,0.00,0.00,VWS V14.01,2013-02-18 00:18:00,
2013-02-17 19:23:00,21.6,5.8,30.01,West,263,0.0,0.0,50,0.00,,,0.00,0.00,VWS V14.01,2013-02-18 00:23:00,
2013-02-17 19:28:00,21.4,5.7,30.01,West,275,0.0,0.0,50,0.00,,,0.00,0.00,VWS V14.01,2013-02-18 00:28:00,
2013-02-17 19:34:00,21.4,5.7,30.01,SE,130,0.0,0.0,50,0.00,,,0.00,0.00,VWS V14.01,2013-02-18 00:34:00,
2013-02-17 19:39:00,21.4,5.7,30.02,SW,227,0.0,0.0,50,0.00,,,0.00,0.00,VWS V14.01,2013-02-18 00:39:00,
2013-02-17 19:45:00,21.3,5.6,30.02,West,265,0.0,0.0,50,0.00,,,0.00,0.00,VWS V14.01,2013-02-18 00:45:00,
2013-02-17 19:50:00,21.4,5.2,30.03,WSW,256,0.0,0.0,49,0.00,,,0.00,0.00,VWS V14.01,2013-02-18 00:50:00,
2013-02-17 19:55:00,21.4,5.7,30.03,South,176,0.0,0.0,50,0.00,,,0.00,0.00,VWS V14.01,2013-02-18 00:55:00,
2013-02-17 20:00:00,21.3,5.6,30.03,SSE,161,0.0,0.0,50,0.00,,,0.00,0.00,VWS V14.01,2013-02-18 01:00:00,
2013-02-17 20:06:00,21.3,5.6,30.03,SW,220,0.0,0.0,50,0.00,,,0.00,0.00,VWS V14.01,2013-02-18 01:06:00,
2013-02-17 20:11:00,21.1,5.4,30.03,West,280,0.0,0.0,50,0.00,,,0.00,0.00,VWS V14.01,2013-02-18 01:11:00,
2013-02-17 20:17:00,21.3,5.6,30.03,West,278,0.0,0.0,50,0.00,,,0.00,0.00,VWS V14.01,2013-02-18 01:17:00,
2013-02-17 20:23:00,21.3,5.6,30.02,SW,226,0.0,0.0,50,0.00,,,0.00,0.00,VWS V14.01,2013-02-18 01:23:00,
2013-02-17 20:28:00,21.4,5.7,30.02,WSW,251,0.0,0.0,50,0.00,,,0.00,0.00,VWS V14.01,2013-02-18 01:28:00,
2013-02-17 20:34:00,21.3,5.6,30.02,West,261,0.0,0.0,50,0.00,,,0.00,0.00,VWS V14.01,2013-02-18 01:34:00,
2013-02-17 20:39:00,21.3,5.1,30.03,WSW,239,0.0,0.0,49,0.00,,,0.00,0.00,VWS V14.01,2013-02-18 01:39:00,
2013-02-17 20:45:00,21.3,5.6,30.03,West,267,0.0,0.0,50,0.00,,,0.00,0.00,VWS V14.01,2013-02-18 01:45:00,
2013-02-17 20:51:00,21.3,5.1,30.03,West,277,0.0,0.0,49,0.00,,,0.00,0.00,VWS V14.01,2013-02-18 01:51:00,
2013-02-17 20:56:00,21.3,5.1,30.03,West,263,0.0,0.0,49,0.00,,,0.00,0.00,VWS V14.01,2013-02-18 01:56:00,
2013-02-17 21:02:00,21.3,5.1,30.03,WSW,256,0.0,0.0,49,0.00,,,0.00,0.00,VWS V14.01,2013-02-18 02:02:00,
2013-02-17 21:07:00,21.3,5.1,30.03,WSW,248,0.0,0.0,49,0.00,,,0.00,0.00,VWS V14.01,2013-02-18 02:07:00,
2013-02-17 21:12:00,21.3,5.1,30.03,SSW,196,0.0,0.0,49,0.00,,,0.00,0.00,VWS V14.01,2013-02-18 02:12:00,
2013-02-17 21:17:00,21.3,5.1,30.03,WSW,257,0.0,0.0,49,0.00,,,0.00,0.00,VWS V14.01,2013-02-18 02:17:00,
2013-02-17 21:22:00,21.1,4.9,30.02,SW,223,0.0,0.0,49,0.00,,,0.00,0.00,VWS V14.01,2013-02-18 02:22:00,
2013-02-17 21:28:00,21.1,4.9,30.02,WSW,247,0.0,0.0,49,0.00,,,0.00,0.00,VWS V14.01,2013-02-18 02:28:00,
2013-02-17 21:34:00,21.0,5.3,30.02,West,275,0.0,0.0,50,0.00,,,0.00,0.00,VWS V14.01,2013-02-18 02:34:00,
2013-02-17 21:39:00,21.0,4.8,30.02,WSW,239,0.0,0.0,49,0.00,,,0.00,0.00,VWS V14.01,2013-02-18 02:39:00,
2013-02-17 21:45:00,21.0,5.3,30.02,WSW,240,0.0,0.0,50,0.00,,,0.00,0.00,VWS V14.01,2013-02-18 02:45:00,
2013-02-17 21:51:00,20.8,5.1,30.03,West,261,0.0,0.0,50,0.00,,,0.00,0.00,VWS V14.01,2013-02-18 02:51:00,
2013-02-17 21:56:00,20.8,4.7,30.03,SW,229,0.0,0.0,49,0.00,,,0.00,0.00,VWS V14.01,2013-02-18 02:56:00,
2013-02-17 22:01:00,20.8,5.1,30.03,SSW,209,0.0,0.0,50,0.00,,,0.00,0.00,VWS V14.01,2013-02-18 03:01:00,
2013-02-17 22:06:00,20.6,4.5,30.04,WSW,256,0.0,0.0,49,0.00,,,0.00,0.00,VWS V14.01,2013-02-18 03:06:00,
2013-02-17 22:11:00,20.6,4.9,30.04,SW,215,0.0,0.0,50,0.00,,,0.00,0.00,VWS V14.01,2013-02-18 03:11:00,
2013-02-17 22:17:00,20.6,4.9,30.04,SW,217,0.0,0.0,50,0.00,,,0.00,0.00,VWS V14.01,2013-02-18 03:17:00,
2013-02-17 22:22:00,20.6,4.9,30.04,South,175,0.0,0.0,50,0.00,,,0.00,0.00,VWS V14.01,2013-02-18 03:22:00,
2013-02-17 22:28:00,20.5,4.8,30.04,South,184,0.0,0.0,50,0.00,,,0.00,0.00,VWS V14.01,2013-02-18 03:28:00,
2013-02-17 22:34:00,20.2,5.0,30.04,NW,322,0.0,0.0,51,0.00,,,0.00,0.00,VWS V14.01,2013-02-18 03:34:00,
2013-02-17 22:39:00,20.2,5.0,30.04,South,179,0.0,0.0,51,0.00,,,0.00,0.00,VWS V14.01,2013-02-18 03:39:00,
2013-02-17 22:45:00,20.0,4.8,30.04,WSW,256,0.0,0.0,51,0.00,,,0.00,0.00,VWS V14.01,2013-02-18 03:45:00,
2013-02-17 22:50:00,19.9,4.7,30.04,West,264,0.0,0.0,51,0.00,,,0.00,0.00,VWS V14.01,2013-02-18 03:50:00,
2013-02-17 22:55:00,19.9,4.7,30.04,South,191,0.0,0.0,51,0.00,,,0.00,0.00,VWS V14.01,2013-02-18 03:55:00,
2013-02-17 23:00:00,19.9,4.7,30.04,SW,215,0.0,0.0,51,0.00,,,0.00,0.00,VWS V14.01,2013-02-18 04:00:00,
2013-02-17 23:06:00,20.0,4.8,30.04,SSW,210,0.0,0.0,51,0.00,,,0.00,0.00,VWS V14.01,2013-02-18 04:06:00,
2013-02-17 23:12:00,20.0,4.8,30.04,SW,236,0.0,0.0,51,0.00,,,0.00,0.00,VWS V14.01,2013-02-18 04:12:00,
2013-02-17 23:18:00,20.0,4.8,30.04,South,189,0.0,0.0,51,0.00,,,0.00,0.00,VWS V14.01,2013-02-18 04:18:00,
2013-02-17 23:23:00,20.0,4.8,30.04,South,179,0.0,0.0,51,0.00,,,0.00,0.00,VWS V14.01,2013-02-18 04:23:00,
2013-02-17 23:29:00,19.9,4.7,30.04,SSW,208,0.0,0.0,51,0.00,,,0.00,0.00,VWS V14.01,2013-02-18 04:29:00,
2013-02-17 23:34:00,19.9,4.7,30.04,South,184,0.0,0.0,51,0.00,,,0.00,0.00,VWS V14.01,2013-02-18 04:34:00,
2013-02-17 23:39:00,20.0,4.4,30.04,SSW,205,0.0,0.0,50,0.00,,,0.00,0.00,VWS V14.01,2013-02-18 04:39:00,
2013-02-17 23:44:00,20.0,4.4,30.04,WSW,241,0.0,0.0,50,0.00,,,0.00,0.00,VWS V14.01,2013-02-18 04:44:00,
2013-02-17 23:50:00,20.0,4.4,30.05,SSE,152,0.0,0.0,50,0.00,,,0.00,0.00,VWS V14.01,2013-02-18 04:50:00,
2013-02-17 23:56:00,20.0,4.4,30.05,West,264,0.0,0.0,50,0.00,,,0.00,0.00,VWS V14.01,2013-02-18 04:56:00,